Time,TemperatureF,DewpointF,PressureIn,WindDirection,WindDirectionDegrees,WindSpeedMPH,WindSpeedGustMPH,Humidity,HourlyPrecipIn,Conditions,Clouds,dailyrainin,SoftwareType,DateUTC
2013-03-11 00:02:00,54.8,42.0,29.71,SSW,202,8.0,9.0,62,0.00,,---,0.01,VWS V14.00,2013-03-11 04:02:00,
2013-03-11 00:03:00,54.8,42.0,29.71,South,182,11.0,11.0,62,0.00,,---,0.01,VWS V14.00,2013-03-11 04:03:00,
2013-03-11 00:04:00,54.7,42.0,29.71,SSW,202,8.0,13.0,62,0.00,,---,0.01,VWS V14.00,2013-03-11 04:04:00,
2013-03-11 00:05:00,54.5,42.2,29.71,South,185,9.0,13.0,63,0.00,,---,0.01,VWS V14.00,2013-03-11 04:05:00,
2013-03-11 00:08:00,54.2,42.3,29.71,SSW,213,6.0,14.0,64,0.00,,---,0.01,VWS V14.00,2013-03-11 04:08:00,
2013-03-11 00:09:00,54.2,42.3,29.71,SSW,203,6.0,14.0,64,0.00,,---,0.01,VWS V14.00,2013-03-11 04:09:00,
2013-03-11 00:10:00,54.1,42.6,29.71,SSW,210,11.0,14.0,65,0.00,,---,0.01,VWS V14.00,2013-03-11 04:10:00,
2013-03-11 00:13:00,53.9,42.4,29.71,SSW,192,4.0,14.0,65,0.00,,---,0.01,VWS V14.00,2013-03-11 04:13:00,
2013-03-11 00:14:00,53.8,42.3,29.71,South,185,2.0,14.0,65,0.00,,---,0.01,VWS V14.00,2013-03-11 04:14:00,
2013-03-11 00:15:00,53.8,42.3,29.71,SSW,195,1.0,14.0,65,0.00,,---,0.01,VWS V14.00,2013-03-11 04:15:00,
2013-03-11 00:18:00,53.6,42.1,29.71,South,174,7.0,14.0,65,0.00,,---,0.01,VWS V14.00,2013-03-11 04:18:00,
2013-03-11 00:19:00,53.6,42.1,29.71,South,188,7.0,14.0,65,0.00,,---,0.01,VWS V14.00,2013-03-11 04:19:00,
2013-03-11 00:20:00,53.5,42.0,29.71,South,169,4.0,14.0,65,0.00,,---,0.01,VWS V14.00,2013-03-11 04:20:00,
2013-03-11 00:23:00,53.5,42.0,29.71,South,184,1.0,14.0,65,0.00,,---,0.01,VWS V14.00,2013-03-11 04:23:00,
2013-03-11 00:24:00,53.5,42.0,29.71,SW,216,7.0,14.0,65,0.00,,---,0.01,VWS V14.00,2013-03-11 04:24:00,
2013-03-11 00:25:00,53.5,42.0,29.71,South,182,7.0,14.0,65,0.00,,---,0.01,VWS V14.00,2013-03-11 04:25:00,
2013-03-11 00:29:00,53.5,42.0,29.71,South,169,4.0,14.0,65,0.00,,---,0.01,VWS V14.00,2013-03-11 04:29:00,
2013-03-11 00:31:00,53.5,42.0,29.71,SSE,168,2.0,14.0,65,0.00,,---,0.01,VWS V14.00,2013-03-11 04:31:00,
2013-03-11 00:34:00,53.5,42.0,29.71,SSE,151,6.0,14.0,65,0.00,,---,0.01,VWS V14.00,2013-03-11 04:34:00,
2013-03-11 00:36:00,53.5,42.0,29.71,SSW,209,6.0,14.0,65,0.00,,---,0.01,VWS V14.00,2013-03-11 04:36:00,
2013-03-11 00:39:00,53.3,41.8,29.71,SSW,195,6.0,14.0,65,0.00,,---,0.01,VWS V14.00,2013-03-11 04:39:00,
2013-03-11 00:42:00,53.3,41.8,29.71,SW,219,8.0,14.0,65,0.00,,---,0.01,VWS V14.00,2013-03-11 04:42:00,
2013-03-11 00:44:00,53.3,41.5,29.71,SW,215,6.0,14.0,64,0.00,,---,0.01,VWS V14.00,2013-03-11 04:44:00,
2013-03-11 00:45:00,53.3,41.5,29.72,SSW,203,9.0,14.0,64,0.00,,---,0.01,VWS V14.00,2013-03-11 04:45:00,
2013-03-11 00:47:00,53.3,41.5,29.72,SSW,202,4.0,14.0,64,0.00,,---,0.01,VWS V14.00,2013-03-11 04:47:00,
2013-03-11 00:49:00,53.3,41.5,29.72,SSW,200,0.0,14.0,64,0.00,,---,0.01,VWS V14.00,2013-03-11 04:49:00,
2013-03-11 00:50:00,53.3,41.5,29.72,South,171,1.0,14.0,64,0.00,,---,0.01,VWS V14.00,2013-03-11 04:50:00,
2013-03-11 00:52:00,53.3,41.8,29.72,South,172,2.0,14.0,65,0.00,,---,0.01,VWS V14.00,2013-03-11 04:52:00,
2013-03-11 00:54:00,53.2,41.8,29.72,South,181,1.0,14.0,65,0.00,,---,0.01,VWS V14.00,2013-03-11 04:54:00,
2013-03-11 00:55:00,53.2,41.8,29.72,South,181,1.0,14.0,65,0.00,,---,0.01,VWS V14.00,2013-03-11 04:55:00,
2013-03-11 00:57:00,53.2,41.8,29.72,SSW,198,2.0,14.0,65,0.00,,---,0.01,VWS V14.00,2013-03-11 04:57:00,
2013-03-11 00:59:00,53.1,41.7,29.71,SSW,200,1.0,14.0,65,0.00,,---,0.01,VWS V14.00,2013-03-11 04:59:00,
2013-03-11 01:00:00,53.1,41.7,29.71,SSW,200,0.0,14.0,65,0.00,,---,0.01,VWS V14.00,2013-03-11 05:00:00,
2013-03-11 01:02:00,53.1,42.1,29.71,SSW,200,1.0,6.0,66,0.01,,---,0.01,VWS V14.00,2013-03-11 05:02:00,
2013-03-11 01:04:00,53.1,42.1,29.71,SSW,200,1.0,6.0,66,0.01,,---,0.01,VWS V14.00,2013-03-11 05:04:00,
2013-03-11 01:05:00,53.1,42.1,29.71,SSW,200,4.0,6.0,66,0.01,,---,0.01,VWS V14.00,2013-03-11 05:05:00,
2013-03-11 01:08:00,52.9,42.3,29.71,SSW,200,2.0,6.0,67,0.01,,---,0.01,VWS V14.00,2013-03-11 05:08:00,
2013-03-11 01:09:00,52.9,42.3,29.71,SSW,200,0.0,6.0,67,0.01,,---,0.01,VWS V14.00,2013-03-11 05:09:00,
2013-03-11 01:10:00,52.8,42.2,29.71,SSW,200,0.0,6.0,67,0.01,,---,0.01,VWS V14.00,2013-03-11 05:10:00,
2013-03-11 01:13:00,52.8,42.5,29.71,SSW,200,0.0,6.0,68,0.01,,---,0.01,VWS V14.00,2013-03-11 05:13:00,
2013-03-11 01:14:00,52.6,42.3,29.69,SSW,200,2.0,6.0,68,0.01,,---,0.01,VWS V14.00,2013-03-11 05:14:00,
2013-03-11 01:15:00,52.6,42.3,29.69,SSW,200,2.0,6.0,68,0.01,,---,0.01,VWS V14.00,2013-03-11 05:15:00,
2013-03-11 01:18:00,52.5,42.6,29.69,SSW,200,0.0,6.0,69,0.01,,---,0.01,VWS V14.00,2013-03-11 05:18:00,
2013-03-11 01:19:00,52.5,42.6,29.69,SSW,200,0.0,6.0,69,0.01,,---,0.01,VWS V14.00,2013-03-11 05:19:00,
2013-03-11 01:20:00,52.5,42.6,29.69,SSW,200,4.0,6.0,69,0.01,,---,0.01,VWS V14.00,2013-03-11 05:20:00,
2013-03-11 01:23:00,52.3,42.5,29.69,SSW,206,7.0,7.0,69,0.01,,---,0.01,VWS V14.00,2013-03-11 05:23:00,
2013-03-11 01:25:00,52.2,42.3,29.69,SSW,192,0.0,7.0,69,0.01,,---,0.01,VWS V14.00,2013-03-11 05:25:00,
2013-03-11 01:26:00,52.2,42.3,29.69,SSW,192,2.0,7.0,69,0.01,,---,0.01,VWS V14.00,2013-03-11 05:26:00,
2013-03-11 01:28:00,52.2,42.7,29.69,South,175,2.0,7.0,70,0.01,,---,0.01,VWS V14.00,2013-03-11 05:28:00,
2013-03-11 01:30:00,52.0,42.5,29.68,South,175,4.0,7.0,70,0.01,,---,0.01,VWS V14.00,2013-03-11 05:30:00,
2013-03-11 01:31:00,52.0,42.5,29.68,South,176,4.0,7.0,70,0.01,,---,0.01,VWS V14.00,2013-03-11 05:31:00,
2013-03-11 01:33:00,52.0,42.5,29.68,South,191,1.0,7.0,70,0.01,,---,0.01,VWS V14.00,2013-03-11 05:33:00,
2013-03-11 01:35:00,51.9,42.4,29.68,SSE,162,2.0,7.0,70,0.01,,---,0.01,VWS V14.00,2013-03-11 05:35:00,
2013-03-11 01:36:00,51.9,42.4,29.68,South,181,4.0,7.0,70,0.01,,---,0.01,VWS V14.00,2013-03-11 05:36:00,
2013-03-11 01:38:00,51.9,42.8,29.68,South,175,4.0,9.0,71,0.01,,---,0.01,VWS V14.00,2013-03-11 05:38:00,
2013-03-11 01:40:00,51.9,42.8,29.68,South,182,0.0,9.0,71,0.01,,---,0.01,VWS V14.00,2013-03-11 05:40:00,
2013-03-11 01:41:00,51.9,42.8,29.68,South,181,0.0,9.0,71,0.01,,---,0.01,VWS V14.00,2013-03-11 05:41:00,
2013-03-11 01:43:00,51.9,42.8,29.68,South,174,2.0,9.0,71,0.01,,---,0.01,VWS V14.00,2013-03-11 05:43:00,
2013-03-11 01:45:00,51.9,42.8,29.67,SSW,209,4.0,9.0,71,0.01,,---,0.01,VWS V14.00,2013-03-11 05:45:00,
2013-03-11 01:46:00,51.9,42.8,29.67,SSW,208,2.0,9.0,71,0.01,,---,0.01,VWS V14.00,2013-03-11 05:46:00,
2013-03-11 01:48:00,51.9,42.8,29.67,SSE,162,1.0,9.0,71,0.01,,---,0.01,VWS V14.00,2013-03-11 05:48:00,
2013-03-11 01:50:00,51.9,42.8,29.67,SSE,154,6.0,9.0,71,0.01,,---,0.01,VWS V14.00,2013-03-11 05:50:00,
2013-03-11 01:52:00,51.9,42.8,29.67,South,175,2.0,9.0,71,0.01,,---,0.01,VWS V14.00,2013-03-11 05:52:00,
2013-03-11 01:53:00,51.9,42.8,29.67,SSE,162,6.0,9.0,71,0.01,,---,0.01,VWS V14.00,2013-03-11 05:53:00,
2013-03-11 01:55:00,51.9,42.8,29.67,SSE,162,2.0,9.0,71,0.01,,---,0.01,VWS V14.00,2013-03-11 05:55:00,
2013-03-11 01:57:00,51.9,42.8,29.67,SSE,162,2.0,9.0,71,0.01,,---,0.01,VWS V14.00,2013-03-11 05:57:00,
2013-03-11 01:58:00,52.2,42.7,29.67,SSW,213,8.0,17.0,70,0.01,,---,0.01,VWS V14.00,2013-03-11 05:58:00,
2013-03-11 02:00:00,52.3,42.5,29.66,South,171,4.0,17.0,69,0.01,,---,0.01,VWS V14.00,2013-03-11 06:00:00,
2013-03-11 02:02:00,52.5,42.6,29.66,SSE,168,1.0,13.0,69,0.01,,---,0.01,VWS V14.00,2013-03-11 06:02:00,
2013-03-11 02:03:00,52.6,42.7,29.66,South,175,2.0,20.0,69,0.01,,---,0.01,VWS V14.00,2013-03-11 06:03:00,
2013-03-11 02:05:00,52.8,42.9,29.66,SSE,158,6.0,20.0,69,0.01,,---,0.01,VWS V14.00,2013-03-11 06:05:00,
2013-03-11 02:07:00,53.1,42.8,29.66,SW,222,6.0,20.0,68,0.01,,---,0.01,VWS V14.00,2013-03-11 06:07:00,
2013-03-11 02:09:00,53.2,42.9,29.66,SSW,193,15.0,20.0,68,0.01,,---,0.01,VWS V14.00,2013-03-11 06:09:00,
2013-03-11 02:10:00,53.3,42.6,29.66,South,186,7.0,20.0,67,0.01,,---,0.01,VWS V14.00,2013-03-11 06:10:00,
2013-03-11 02:11:00,53.3,42.6,29.66,SSE,155,4.0,20.0,67,0.01,,---,0.01,VWS V14.00,2013-03-11 06:11:00,
2013-03-11 02:12:00,53.5,42.8,29.66,SSW,199,8.0,20.0,67,0.01,,---,0.01,VWS V14.00,2013-03-11 06:12:00,
2013-03-11 02:14:00,53.6,42.9,29.66,South,171,2.0,20.0,67,0.01,,---,0.01,VWS V14.00,2013-03-11 06:14:00,
2013-03-11 02:15:00,53.6,42.9,29.65,SSW,205,8.0,20.0,67,0.01,,---,0.01,VWS V14.00,2013-03-11 06:15:00,
2013-03-11 02:16:00,53.6,42.9,29.65,SW,215,8.0,20.0,67,0.01,,---,0.01,VWS V14.00,2013-03-11 06:16:00,
2013-03-11 02:17:00,53.6,42.9,29.65,SSW,213,8.0,20.0,67,0.01,,---,0.01,VWS V14.00,2013-03-11 06:17:00,
2013-03-11 02:19:00,53.6,42.9,29.65,South,175,10.0,20.0,67,0.01,,---,0.01,VWS V14.00,2013-03-11 06:19:00,
2013-03-11 02:20:00,53.6,42.9,29.65,SSW,198,8.0,20.0,67,0.01,,---,0.01,VWS V14.00,2013-03-11 06:20:00,
2013-03-11 02:21:00,53.6,42.9,29.65,South,189,7.0,20.0,67,0.01,,---,0.01,VWS V14.00,2013-03-11 06:21:00,
2013-03-11 02:22:00,53.6,43.3,29.65,SSW,199,8.0,20.0,68,0.01,,---,0.01,VWS V14.00,2013-03-11 06:22:00,
2013-03-11 02:24:00,53.6,43.3,29.65,SSE,162,2.0,20.0,68,0.01,,---,0.01,VWS V14.00,2013-03-11 06:24:00,
2013-03-11 02:26:00,53.6,43.3,29.65,SSW,192,6.0,20.0,68,0.01,,---,0.01,VWS V14.00,2013-03-11 06:26:00,
2013-03-11 02:27:00,53.6,43.3,29.65,SSE,151,4.0,20.0,68,0.01,,---,0.01,VWS V14.00,2013-03-11 06:27:00,
2013-03-11 02:29:00,53.6,43.3,29.65,South,178,6.0,20.0,68,0.01,,---,0.01,VWS V14.00,2013-03-11 06:29:00,
2013-03-11 02:32:00,53.5,43.2,29.65,SSW,200,7.0,20.0,68,0.01,,---,0.01,VWS V14.00,2013-03-11 06:32:00,
2013-03-11 02:33:00,53.5,43.2,29.65,SSE,154,2.0,20.0,68,0.01,,---,0.01,VWS V14.00,2013-03-11 06:33:00,
2013-03-11 02:34:00,53.5,43.6,29.65,SSW,212,8.0,20.0,69,0.01,,---,0.01,VWS V14.00,2013-03-11 06:34:00,
2013-03-11 02:37:00,53.5,43.6,29.65,SSW,192,9.0,20.0,69,0.01,,---,0.01,VWS V14.00,2013-03-11 06:37:00,
2013-03-11 02:38:00,53.5,43.6,29.65,SSE,164,4.0,20.0,69,0.01,,---,0.01,VWS V14.00,2013-03-11 06:38:00,
2013-03-11 02:40:00,53.5,43.6,29.65,South,169,8.0,20.0,69,0.01,,---,0.01,VWS V14.00,2013-03-11 06:40:00,
2013-03-11 02:42:00,53.5,43.6,29.65,SSW,199,2.0,20.0,69,0.01,,---,0.01,VWS V14.00,2013-03-11 06:42:00,
2013-03-11 02:43:00,53.3,43.4,29.65,SSW,195,9.0,20.0,69,0.01,,---,0.01,VWS V14.00,2013-03-11 06:43:00,
2013-03-11 02:45:00,53.3,43.4,29.65,South,185,1.0,20.0,69,0.01,,---,0.01,VWS V14.00,2013-03-11 06:45:00,
2013-03-11 02:47:00,53.3,43.4,29.65,South,188,2.0,20.0,69,0.01,,---,0.01,VWS V14.00,2013-03-11 06:47:00,
2013-03-11 02:48:00,53.3,43.4,29.65,SSW,202,8.0,20.0,69,0.01,,---,0.01,VWS V14.00,2013-03-11 06:48:00,
2013-03-11 02:50:00,53.3,43.4,29.65,SSW,206,8.0,20.0,69,0.01,,---,0.01,VWS V14.00,2013-03-11 06:50:00,
2013-03-11 02:52:00,53.3,43.4,29.65,WSW,237,10.0,20.0,69,0.01,,---,0.01,VWS V14.00,2013-03-11 06:52:00,
2013-03-11 02:53:00,53.3,43.4,29.65,SW,224,4.0,20.0,69,0.01,,---,0.01,VWS V14.00,2013-03-11 06:53:00,
2013-03-11 02:55:00,53.3,43.8,29.65,South,182,4.0,20.0,70,0.01,,---,0.01,VWS V14.00,2013-03-11 06:55:00,
2013-03-11 02:57:00,53.3,43.8,29.65,SSE,168,4.0,20.0,70,0.01,,---,0.01,VWS V14.00,2013-03-11 06:57:00,
2013-03-11 02:58:00,53.3,43.8,29.65,SSE,168,1.0,20.0,70,0.01,,---,0.01,VWS V14.00,2013-03-11 06:58:00,
2013-03-11 03:00:00,53.3,43.8,29.65,SSW,206,7.0,20.0,70,0.01,,---,0.01,VWS V14.00,2013-03-11 07:00:00,
2013-03-11 03:03:00,53.3,43.8,29.65,SSW,212,6.0,9.0,70,0.00,,---,0.01,VWS V14.00,2013-03-11 07:03:00,
2013-03-11 03:05:00,53.3,43.8,29.65,SSE,161,2.0,9.0,70,0.00,,---,0.01,VWS V14.00,2013-03-11 07:05:00,
2013-03-11 03:08:00,53.2,43.7,29.65,South,184,8.0,9.0,70,0.00,,---,0.01,VWS V14.00,2013-03-11 07:08:00,
2013-03-11 03:10:00,53.2,44.0,29.65,SSE,154,6.0,10.0,71,0.00,,---,0.01,VWS V14.00,2013-03-11 07:10:00,
2013-03-11 03:13:00,53.2,44.0,29.65,SSW,193,7.0,13.0,71,0.00,,---,0.01,VWS V14.00,2013-03-11 07:13:00,
2013-03-11 03:15:00,53.2,44.0,29.64,SSW,195,4.0,13.0,71,0.00,,---,0.01,VWS V14.00,2013-03-11 07:15:00,
2013-03-11 03:18:00,53.1,44.0,29.64,SSE,151,7.0,13.0,71,0.00,,---,0.01,VWS V14.00,2013-03-11 07:18:00,
2013-03-11 03:20:00,53.1,44.3,29.64,SSW,196,6.0,13.0,72,0.00,,---,0.01,VWS V14.00,2013-03-11 07:20:00,
2013-03-11 03:23:00,53.1,44.3,29.64,SSE,164,7.0,13.0,72,0.00,,---,0.01,VWS V14.00,2013-03-11 07:23:00,
2013-03-11 03:25:00,53.1,44.3,29.64,SW,224,6.0,13.0,72,0.00,,---,0.01,VWS V14.00,2013-03-11 07:25:00,
2013-03-11 03:28:00,53.2,44.0,29.64,SSW,203,8.0,14.0,71,0.00,,---,0.01,VWS V14.00,2013-03-11 07:28:00,
2013-03-11 03:29:00,53.2,44.0,29.64,South,174,1.0,14.0,71,0.00,,---,0.01,VWS V14.00,2013-03-11 07:29:00,
2013-03-11 03:30:00,53.3,44.2,29.63,SSW,198,10.0,16.0,71,0.00,,---,0.01,VWS V14.00,2013-03-11 07:30:00,
2013-03-11 03:33:00,53.3,44.2,29.63,South,171,8.0,16.0,71,0.00,,---,0.01,VWS V14.00,2013-03-11 07:33:00,
2013-03-11 03:34:00,53.3,44.2,29.63,South,172,7.0,16.0,71,0.00,,---,0.01,VWS V14.00,2013-03-11 07:34:00,
2013-03-11 03:35:00,53.3,44.2,29.63,SSW,195,9.0,16.0,71,0.00,,---,0.01,VWS V14.00,2013-03-11 07:35:00,
2013-03-11 03:38:00,53.5,44.3,29.63,SSW,199,10.0,16.0,71,0.00,,---,0.01,VWS V14.00,2013-03-11 07:38:00,
2013-03-11 03:39:00,53.5,44.3,29.63,SE,138,4.0,16.0,71,0.00,,---,0.01,VWS V14.00,2013-03-11 07:39:00,
2013-03-11 03:40:00,53.5,44.3,29.63,SE,145,8.0,16.0,71,0.00,,---,0.01,VWS V14.00,2013-03-11 07:40:00,
2013-03-11 03:43:00,53.5,44.3,29.63,SSW,209,11.0,18.0,71,0.00,,---,0.01,VWS V14.00,2013-03-11 07:43:00,
2013-03-11 03:44:00,53.5,44.3,29.63,South,178,7.0,18.0,71,0.00,,---,0.01,VWS V14.00,2013-03-11 07:44:00,
2013-03-11 03:45:00,53.5,44.3,29.62,South,178,9.0,18.0,71,0.00,,---,0.01,VWS V14.00,2013-03-11 07:45:00,
2013-03-11 03:49:00,53.5,44.3,29.62,SSW,208,13.0,18.0,71,0.00,,---,0.01,VWS V14.00,2013-03-11 07:49:00,
2013-03-11 03:50:00,53.5,44.3,29.62,SSE,155,8.0,18.0,71,0.00,,---,0.01,VWS V14.00,2013-03-11 07:50:00,
2013-03-11 03:54:00,53.5,44.7,29.62,SSW,212,18.0,18.0,72,0.00,,---,0.01,VWS V14.00,2013-03-11 07:54:00,
2013-03-11 03:56:00,53.5,44.7,29.62,SSW,202,13.0,18.0,72,0.00,,---,0.01,VWS V14.00,2013-03-11 07:56:00,
2013-03-11 03:59:00,53.6,44.8,29.62,SW,227,8.0,18.0,72,0.00,,---,0.01,VWS V14.00,2013-03-11 07:59:00,
2013-03-11 04:00:00,53.6,44.8,29.62,SW,223,16.0,18.0,72,0.00,,---,0.01,VWS V14.00,2013-03-11 08:00:00,
2013-03-11 04:01:00,53.6,44.8,29.62,SW,216,8.0,13.0,72,0.00,,---,0.01,VWS V14.00,2013-03-11 08:01:00,
2013-03-11 04:04:00,53.6,44.8,29.62,South,171,6.0,23.0,72,0.00,,---,0.01,VWS V14.00,2013-03-11 08:04:00,
2013-03-11 04:05:00,53.6,44.8,29.62,SSW,196,2.0,23.0,72,0.00,,---,0.01,VWS V14.00,2013-03-11 08:05:00,
2013-03-11 04:06:00,53.6,44.8,29.62,South,189,7.0,23.0,72,0.00,,---,0.01,VWS V14.00,2013-03-11 08:06:00,
2013-03-11 04:09:00,53.6,44.8,29.62,SW,217,11.0,23.0,72,0.00,,---,0.01,VWS V14.00,2013-03-11 08:09:00,
2013-03-11 04:10:00,53.6,44.8,29.62,South,184,10.0,23.0,72,0.00,,---,0.01,VWS V14.00,2013-03-11 08:10:00,
2013-03-11 04:12:00,53.6,44.8,29.62,SSW,192,11.0,23.0,72,0.00,,---,0.01,VWS V14.00,2013-03-11 08:12:00,
2013-03-11 04:14:00,53.5,44.7,29.62,SSW,202,7.0,23.0,72,0.00,,---,0.01,VWS V14.00,2013-03-11 08:14:00,
2013-03-11 04:15:00,53.5,44.7,29.61,SSE,165,2.0,23.0,72,0.00,,---,0.01,VWS V14.00,2013-03-11 08:15:00,
2013-03-11 04:17:00,53.5,45.1,29.61,SSW,209,25.0,25.0,73,0.00,,---,0.01,VWS V14.00,2013-03-11 08:17:00,
2013-03-11 04:19:00,53.5,45.1,29.61,SSE,151,7.0,25.0,73,0.00,,---,0.01,VWS V14.00,2013-03-11 08:19:00,
2013-03-11 04:20:00,53.5,45.1,29.61,South,181,11.0,25.0,73,0.00,,---,0.01,VWS V14.00,2013-03-11 08:20:00,
2013-03-11 04:22:00,53.5,45.1,29.61,SSW,200,10.0,25.0,73,0.00,,---,0.01,VWS V14.00,2013-03-11 08:22:00,
2013-03-11 04:24:00,53.5,45.1,29.61,SSW,198,7.0,25.0,73,0.00,,---,0.01,VWS V14.00,2013-03-11 08:24:00,
2013-03-11 04:25:00,53.3,44.9,29.61,SW,220,18.0,25.0,73,0.00,,---,0.01,VWS V14.00,2013-03-11 08:25:00,
2013-03-11 04:27:00,53.3,45.2,29.61,SSW,192,8.0,25.0,74,0.00,,---,0.01,VWS V14.00,2013-03-11 08:27:00,
2013-03-11 04:29:00,53.3,45.2,29.61,South,174,9.0,25.0,74,0.00,,---,0.01,VWS V14.00,2013-03-11 08:29:00,
2013-03-11 04:30:00,53.3,45.2,29.61,SSE,157,6.0,25.0,74,0.00,,---,0.01,VWS V14.00,2013-03-11 08:30:00,
2013-03-11 04:32:00,53.3,45.2,29.61,South,188,14.0,25.0,74,0.00,,---,0.01,VWS V14.00,2013-03-11 08:32:00,
2013-03-11 04:34:00,53.3,45.6,29.61,South,169,6.0,25.0,75,0.00,,---,0.01,VWS V14.00,2013-03-11 08:34:00,
2013-03-11 04:35:00,53.3,45.6,29.61,SSE,147,9.0,25.0,75,0.00,,---,0.01,VWS V14.00,2013-03-11 08:35:00,
2013-03-11 04:37:00,53.3,45.6,29.61,SW,215,10.0,25.0,75,0.00,,---,0.01,VWS V14.00,2013-03-11 08:37:00,
2013-03-11 04:39:00,53.3,45.6,29.61,SSW,203,6.0,25.0,75,0.00,,---,0.01,VWS V14.00,2013-03-11 08:39:00,
2013-03-11 04:40:00,53.3,45.6,29.61,SSW,203,8.0,25.0,75,0.00,,---,0.01,VWS V14.00,2013-03-11 08:40:00,
2013-03-11 04:42:00,53.2,45.5,29.61,SSW,212,9.0,25.0,75,0.00,,---,0.01,VWS V14.00,2013-03-11 08:42:00,
2013-03-11 04:45:00,53.2,45.5,29.61,SSW,213,9.0,25.0,75,0.00,,---,0.01,VWS V14.00,2013-03-11 08:45:00,
2013-03-11 04:47:00,53.2,45.8,29.61,SSW,210,11.0,25.0,76,0.00,,---,0.01,VWS V14.00,2013-03-11 08:47:00,
2013-03-11 04:50:00,53.1,45.8,29.61,SSW,209,15.0,25.0,76,0.00,,---,0.01,VWS V14.00,2013-03-11 08:50:00,
2013-03-11 04:52:00,53.1,45.8,29.61,SW,216,15.0,25.0,76,0.00,,---,0.01,VWS V14.00,2013-03-11 08:52:00,
2013-03-11 04:53:00,53.1,45.8,29.61,SW,216,10.0,25.0,76,0.00,,---,0.01,VWS V14.00,2013-03-11 08:53:00,
2013-03-11 04:55:00,53.1,45.8,29.61,SSE,160,8.0,25.0,76,0.00,,---,0.01,VWS V14.00,2013-03-11 08:55:00,
2013-03-11 04:57:00,52.9,45.5,29.61,SSW,209,11.0,25.0,76,0.00,,---,0.01,VWS V14.00,2013-03-11 08:57:00,
2013-03-11 04:58:00,52.9,45.5,29.61,SSW,209,7.0,25.0,76,0.00,,---,0.01,VWS V14.00,2013-03-11 08:58:00,
2013-03-11 05:00:00,52.9,45.9,29.61,South,169,7.0,25.0,77,0.00,,---,0.01,VWS V14.00,2013-03-11 09:00:00,
2013-03-11 05:02:00,52.8,45.8,29.61,SSW,209,14.0,15.0,77,0.00,,---,0.01,VWS V14.00,2013-03-11 09:02:00,
2013-03-11 05:03:00,52.8,45.8,29.61,South,175,10.0,20.0,77,0.00,,---,0.01,VWS V14.00,2013-03-11 09:03:00,
2013-03-11 05:05:00,52.8,45.8,29.61,South,185,6.0,20.0,77,0.00,,---,0.01,VWS V14.00,2013-03-11 09:05:00,
2013-03-11 05:07:00,52.6,45.6,29.61,SSE,168,6.0,20.0,77,0.00,,---,0.01,VWS V14.00,2013-03-11 09:07:00,
2013-03-11 05:08:00,52.6,46.0,29.61,WSW,239,8.0,20.0,78,0.00,,---,0.01,VWS V14.00,2013-03-11 09:08:00,
2013-03-11 05:10:00,52.6,46.0,29.61,South,188,11.0,20.0,78,0.00,,---,0.01,VWS V14.00,2013-03-11 09:10:00,
2013-03-11 05:11:00,52.6,46.0,29.61,SSE,147,8.0,20.0,78,0.00,,---,0.01,VWS V14.00,2013-03-11 09:11:00,
2013-03-11 05:13:00,52.6,46.0,29.61,SSW,213,13.0,20.0,78,0.00,,---,0.01,VWS V14.00,2013-03-11 09:13:00,
2013-03-11 05:15:00,52.5,45.8,29.60,South,189,6.0,20.0,78,0.00,,---,0.01,VWS V14.00,2013-03-11 09:15:00,
2013-03-11 05:16:00,52.5,45.8,29.60,SSE,161,2.0,20.0,78,0.00,,---,0.01,VWS V14.00,2013-03-11 09:16:00,
2013-03-11 05:18:00,52.5,46.2,29.60,SSW,205,7.0,20.0,79,0.00,,---,0.01,VWS V14.00,2013-03-11 09:18:00,
2013-03-11 05:19:00,52.3,46.0,29.60,SSW,193,6.0,20.0,79,0.00,,---,0.01,VWS V14.00,2013-03-11 09:19:00,
2013-03-11 05:20:00,52.3,46.0,29.60,SE,145,8.0,20.0,79,0.00,,---,0.01,VWS V14.00,2013-03-11 09:20:00,
2013-03-11 05:21:00,52.3,46.0,29.60,SSW,206,7.0,20.0,79,0.00,,---,0.01,VWS V14.00,2013-03-11 09:21:00,
2013-03-11 05:23:00,52.3,46.0,29.60,SSW,212,8.0,20.0,79,0.00,,---,0.01,VWS V14.00,2013-03-11 09:23:00,
2013-03-11 05:24:00,52.3,46.0,29.60,SW,224,9.0,20.0,79,0.00,,---,0.01,VWS V14.00,2013-03-11 09:24:00,
2013-03-11 05:25:00,52.2,45.9,29.60,SSW,206,7.0,20.0,79,0.00,,---,0.01,VWS V14.00,2013-03-11 09:25:00,
2013-03-11 05:26:00,52.2,45.9,29.60,SSW,205,6.0,20.0,79,0.00,,---,0.01,VWS V14.00,2013-03-11 09:26:00,
2013-03-11 05:28:00,52.2,45.9,29.60,SW,217,6.0,20.0,79,0.00,,---,0.01,VWS V14.00,2013-03-11 09:28:00,
2013-03-11 05:29:00,52.2,45.9,29.60,SW,219,8.0,20.0,79,0.00,,---,0.01,VWS V14.00,2013-03-11 09:29:00,
2013-03-11 05:30:00,52.2,45.9,29.61,SSW,213,8.0,20.0,79,0.00,,---,0.01,VWS V14.00,2013-03-11 09:30:00,
2013-03-11 05:32:00,52.2,46.2,29.61,South,191,9.0,20.0,80,0.00,,---,0.01,VWS V14.00,2013-03-11 09:32:00,
2013-03-11 05:33:00,52.0,46.0,29.61,SSE,168,6.0,20.0,80,0.00,,---,0.01,VWS V14.00,2013-03-11 09:33:00,
2013-03-11 05:35:00,52.0,46.0,29.61,SSW,210,8.0,20.0,80,0.00,,---,0.01,VWS V14.00,2013-03-11 09:35:00,
2013-03-11 05:37:00,52.0,46.0,29.61,SSW,210,4.0,20.0,80,0.00,,---,0.01,VWS V14.00,2013-03-11 09:37:00,
2013-03-11 05:38:00,52.0,46.0,29.61,SW,215,10.0,20.0,80,0.00,,---,0.01,VWS V14.00,2013-03-11 09:38:00,
2013-03-11 05:40:00,52.0,46.0,29.61,South,188,2.0,20.0,80,0.00,,---,0.01,VWS V14.00,2013-03-11 09:40:00,
2013-03-11 05:42:00,51.9,45.9,29.61,SSW,199,6.0,20.0,80,0.00,,---,0.01,VWS V14.00,2013-03-11 09:42:00,
2013-03-11 05:43:00,51.9,45.9,29.61,SSW,193,7.0,20.0,80,0.00,,---,0.01,VWS V14.00,2013-03-11 09:43:00,
2013-03-11 05:45:00,51.9,45.9,29.61,SSE,150,2.0,20.0,80,0.00,,---,0.01,VWS V14.00,2013-03-11 09:45:00,
2013-03-11 05:47:00,51.9,46.3,29.61,SSE,154,6.0,20.0,81,0.00,,---,0.01,VWS V14.00,2013-03-11 09:47:00,
2013-03-11 05:48:00,51.9,46.3,29.61,South,181,6.0,20.0,81,0.00,,---,0.01,VWS V14.00,2013-03-11 09:48:00,
2013-03-11 05:50:00,51.9,46.3,29.61,SSW,206,10.0,20.0,81,0.00,,---,0.01,VWS V14.00,2013-03-11 09:50:00,
2013-03-11 05:51:00,51.9,46.3,29.61,South,176,4.0,20.0,81,0.00,,---,0.01,VWS V14.00,2013-03-11 09:51:00,
2013-03-11 05:52:00,51.9,46.3,29.61,SE,145,7.0,20.0,81,0.00,,---,0.01,VWS V14.00,2013-03-11 09:52:00,
2013-03-11 05:53:00,51.9,46.3,29.61,South,191,6.0,20.0,81,0.00,,---,0.01,VWS V14.00,2013-03-11 09:53:00,
2013-03-11 05:55:00,51.9,46.3,29.61,SSW,196,8.0,20.0,81,0.00,,---,0.01,VWS V14.00,2013-03-11 09:55:00,
2013-03-11 05:56:00,51.9,46.3,29.61,South,171,2.0,20.0,81,0.00,,---,0.01,VWS V14.00,2013-03-11 09:56:00,
2013-03-11 05:58:00,51.7,46.1,29.61,SSE,150,6.0,20.0,81,0.00,,---,0.01,VWS V14.00,2013-03-11 09:58:00,
2013-03-11 05:59:00,51.7,46.1,29.61,SSE,158,2.0,20.0,81,0.00,,---,0.01,VWS V14.00,2013-03-11 09:59:00,
2013-03-11 06:00:00,51.7,46.1,29.60,SSW,205,8.0,20.0,81,0.00,,---,0.01,VWS V14.00,2013-03-11 10:00:00,
2013-03-11 06:01:00,51.7,46.1,29.60,SSW,196,13.0,15.0,81,0.00,,---,0.01,VWS V14.00,2013-03-11 10:01:00,
2013-03-11 06:03:00,51.7,46.1,29.60,SE,134,13.0,15.0,81,0.00,,---,0.01,VWS V14.00,2013-03-11 10:03:00,
2013-03-11 06:04:00,51.7,46.1,29.60,South,185,8.0,16.0,81,0.00,,---,0.01,VWS V14.00,2013-03-11 10:04:00,
2013-03-11 06:05:00,51.7,46.1,29.60,SW,224,13.0,16.0,81,0.00,,---,0.01,VWS V14.00,2013-03-11 10:05:00,
2013-03-11 06:06:00,51.9,46.3,29.60,SSW,205,11.0,16.0,81,0.00,,---,0.01,VWS V14.00,2013-03-11 10:06:00,
2013-03-11 06:08:00,51.9,46.3,29.60,SW,223,9.0,16.0,81,0.00,,---,0.01,VWS V14.00,2013-03-11 10:08:00,
2013-03-11 06:09:00,51.9,46.3,29.60,SSW,202,15.0,18.0,81,0.00,,---,0.01,VWS V14.00,2013-03-11 10:09:00,
2013-03-11 06:10:00,51.9,46.3,29.60,SSW,209,8.0,18.0,81,0.00,,---,0.01,VWS V14.00,2013-03-11 10:10:00,
2013-03-11 06:12:00,51.9,46.3,29.60,SSW,210,10.0,18.0,81,0.00,,---,0.01,VWS V14.00,2013-03-11 10:12:00,
2013-03-11 06:13:00,51.9,46.3,29.60,SSW,195,6.0,18.0,81,0.00,,---,0.01,VWS V14.00,2013-03-11 10:13:00,
2013-03-11 06:14:00,51.9,46.3,29.60,SSW,212,6.0,18.0,81,0.00,,---,0.01,VWS V14.00,2013-03-11 10:14:00,
2013-03-11 06:15:00,51.9,46.3,29.61,SSW,199,9.0,18.0,81,0.00,,---,0.01,VWS V14.00,2013-03-11 10:15:00,
2013-03-11 06:17:00,51.9,46.3,29.61,SSW,212,7.0,18.0,81,0.00,,---,0.01,VWS V14.00,2013-03-11 10:17:00,
2013-03-11 06:19:00,51.9,46.3,29.61,SSW,203,10.0,18.0,81,0.00,,---,0.01,VWS V14.00,2013-03-11 10:19:00,
2013-03-11 06:20:00,51.9,46.3,29.61,SSW,206,8.0,18.0,81,0.00,,---,0.01,VWS V14.00,2013-03-11 10:20:00,
2013-03-11 06:22:00,51.9,46.3,29.61,SSW,192,6.0,18.0,81,0.00,,---,0.01,VWS V14.00,2013-03-11 10:22:00,
2013-03-11 06:24:00,51.9,45.9,29.61,SSW,212,10.0,18.0,80,0.00,,---,0.01,VWS V14.00,2013-03-11 10:24:00,
2013-03-11 06:25:00,51.9,45.9,29.61,SSW,200,2.0,18.0,80,0.00,,---,0.01,VWS V14.00,2013-03-11 10:25:00,
2013-03-11 06:27:00,51.9,45.9,29.61,SW,215,8.0,18.0,80,0.00,,---,0.01,VWS V14.00,2013-03-11 10:27:00,
2013-03-11 06:29:00,51.9,45.9,29.61,SSW,198,8.0,18.0,80,0.00,,---,0.01,VWS V14.00,2013-03-11 10:29:00,
2013-03-11 06:30:00,51.9,45.9,29.61,South,189,7.0,18.0,80,0.00,,---,0.01,VWS V14.00,2013-03-11 10:30:00,
2013-03-11 06:32:00,51.9,45.9,29.61,SW,224,7.0,18.0,80,0.00,,---,0.01,VWS V14.00,2013-03-11 10:32:00,
2013-03-11 06:34:00,51.9,46.3,29.61,WSW,244,10.0,18.0,81,0.00,,---,0.01,VWS V14.00,2013-03-11 10:34:00,
2013-03-11 06:35:00,51.7,46.4,29.61,SSW,208,11.0,18.0,82,0.00,,---,0.01,VWS V14.00,2013-03-11 10:35:00,
2013-03-11 06:37:00,51.6,46.3,29.61,SSW,192,7.0,18.0,82,0.00,,---,0.01,VWS V14.00,2013-03-11 10:37:00,
2013-03-11 06:39:00,51.6,46.3,29.61,SSW,213,7.0,18.0,82,0.00,,---,0.01,VWS V14.00,2013-03-11 10:39:00,
2013-03-11 06:41:00,51.4,46.4,29.61,SSE,160,7.0,18.0,83,0.00,,---,0.01,VWS V14.00,2013-03-11 10:41:00,
2013-03-11 06:43:00,51.3,46.3,29.61,SSW,205,10.0,18.0,83,0.00,,---,0.01,VWS V14.00,2013-03-11 10:43:00,
2013-03-11 06:44:00,51.3,46.6,29.61,SSW,193,7.0,18.0,84,0.00,,---,0.01,VWS V14.00,2013-03-11 10:44:00,
2013-03-11 06:46:00,51.0,46.3,29.62,SSW,209,13.0,18.0,84,0.00,,---,0.01,VWS V14.00,2013-03-11 10:46:00,
2013-03-11 06:48:00,51.0,46.7,29.62,SSE,157,8.0,18.0,85,0.01,,---,0.02,VWS V14.00,2013-03-11 10:48:00,
2013-03-11 06:49:00,50.8,46.8,29.62,SW,217,11.0,18.0,86,0.01,,---,0.02,VWS V14.00,2013-03-11 10:49:00,
2013-03-11 06:51:00,50.7,46.7,29.62,WSW,239,6.0,18.0,86,0.01,,---,0.02,VWS V14.00,2013-03-11 10:51:00,
2013-03-11 06:53:00,50.7,46.7,29.62,SSW,199,7.0,18.0,86,0.01,,---,0.02,VWS V14.00,2013-03-11 10:53:00,
2013-03-11 06:54:00,50.5,46.5,29.62,SSW,203,9.0,18.0,86,0.01,,---,0.02,VWS V14.00,2013-03-11 10:54:00,
2013-03-11 06:55:00,50.5,46.8,29.62,SSW,192,7.0,18.0,87,0.01,,---,0.02,VWS V14.00,2013-03-11 10:55:00,
2013-03-11 06:56:00,50.4,46.7,29.62,SSW,209,9.0,18.0,87,0.01,,---,0.02,VWS V14.00,2013-03-11 10:56:00,
2013-03-11 06:58:00,50.4,47.0,29.62,SSW,205,7.0,18.0,88,0.01,,---,0.02,VWS V14.00,2013-03-11 10:58:00,
2013-03-11 06:59:00,50.2,46.8,29.62,SSW,210,9.0,18.0,88,0.01,,---,0.02,VWS V14.00,2013-03-11 10:59:00,
2013-03-11 07:00:00,50.2,46.8,29.62,SSW,202,9.0,18.0,88,0.01,,---,0.02,VWS V14.00,2013-03-11 11:00:00,
2013-03-11 07:02:00,50.2,47.1,29.62,SSW,200,4.0,10.0,89,0.01,,---,0.02,VWS V14.00,2013-03-11 11:02:00,
2013-03-11 07:03:00,50.1,47.0,29.62,SSW,208,7.0,10.0,89,0.01,,---,0.02,VWS V14.00,2013-03-11 11:03:00,
2013-03-11 07:04:00,50.1,47.0,29.62,SSW,206,6.0,11.0,89,0.01,,---,0.02,VWS V14.00,2013-03-11 11:04:00,
2013-03-11 07:05:00,50.1,47.0,29.62,SW,222,8.0,11.0,89,0.01,,---,0.02,VWS V14.00,2013-03-11 11:05:00,
2013-03-11 07:07:00,50.1,47.0,29.62,SSE,162,8.0,14.0,89,0.01,,---,0.02,VWS V14.00,2013-03-11 11:07:00,
2013-03-11 07:08:00,49.9,46.8,29.62,SSW,209,8.0,14.0,89,0.01,,---,0.02,VWS V14.00,2013-03-11 11:08:00,
2013-03-11 07:09:00,49.9,46.8,29.62,SSW,192,8.0,14.0,89,0.02,,---,0.03,VWS V14.00,2013-03-11 11:09:00,
2013-03-11 07:10:00,49.9,47.1,29.62,SSW,198,6.0,14.0,90,0.02,,---,0.03,VWS V14.00,2013-03-11 11:10:00,
2013-03-11 07:12:00,49.9,47.1,29.62,SE,144,2.0,14.0,90,0.02,,---,0.03,VWS V14.00,2013-03-11 11:12:00,
2013-03-11 07:13:00,49.9,47.1,29.62,South,188,2.0,14.0,90,0.02,,---,0.03,VWS V14.00,2013-03-11 11:13:00,
2013-03-11 07:14:00,49.8,47.0,29.62,South,182,6.0,14.0,90,0.02,,---,0.03,VWS V14.00,2013-03-11 11:14:00,
2013-03-11 07:15:00,49.8,47.0,29.62,SSW,206,4.0,14.0,90,0.02,,---,0.03,VWS V14.00,2013-03-11 11:15:00,
2013-03-11 07:17:00,49.8,47.0,29.62,SSE,162,7.0,14.0,90,0.02,,---,0.03,VWS V14.00,2013-03-11 11:17:00,
2013-03-11 07:18:00,49.8,47.0,29.62,SSW,192,1.0,14.0,90,0.02,,---,0.03,VWS V14.00,2013-03-11 11:18:00,
2013-03-11 07:19:00,49.8,47.3,29.62,SSW,208,4.0,14.0,91,0.02,,---,0.03,VWS V14.00,2013-03-11 11:19:00,
2013-03-11 07:20:00,49.8,47.3,29.62,SW,229,9.0,14.0,91,0.02,,---,0.03,VWS V14.00,2013-03-11 11:20:00,
2013-03-11 07:22:00,49.6,47.1,29.62,SSE,161,4.0,14.0,91,0.02,,---,0.03,VWS V14.00,2013-03-11 11:22:00,
2013-03-11 07:23:00,49.6,47.1,29.62,SSE,162,6.0,14.0,91,0.02,,---,0.03,VWS V14.00,2013-03-11 11:23:00,
2013-03-11 07:24:00,49.6,47.1,29.62,South,189,1.0,14.0,91,0.02,,---,0.03,VWS V14.00,2013-03-11 11:24:00,
2013-03-11 07:25:00,49.6,47.1,29.62,South,188,7.0,14.0,91,0.02,,---,0.03,VWS V14.00,2013-03-11 11:25:00,
2013-03-11 07:27:00,49.6,47.1,29.62,SE,136,4.0,14.0,91,0.02,,---,0.03,VWS V14.00,2013-03-11 11:27:00,
2013-03-11 07:28:00,49.6,47.1,29.62,SE,137,4.0,14.0,91,0.02,,---,0.03,VWS V14.00,2013-03-11 11:28:00,
2013-03-11 07:29:00,49.6,47.1,29.60,SE,143,2.0,14.0,91,0.02,,---,0.03,VWS V14.00,2013-03-11 11:29:00,
2013-03-11 07:30:00,49.5,47.0,29.60,South,184,7.0,14.0,91,0.02,,---,0.03,VWS V14.00,2013-03-11 11:30:00,
2013-03-11 07:32:00,49.5,47.0,29.60,South,182,8.0,14.0,91,0.02,,---,0.03,VWS V14.00,2013-03-11 11:32:00,
2013-03-11 07:33:00,49.5,47.0,29.60,SSW,209,10.0,14.0,91,0.02,,---,0.03,VWS V14.00,2013-03-11 11:33:00,
2013-03-11 07:34:00,49.5,47.3,29.60,SSW,200,6.0,14.0,92,0.02,,---,0.03,VWS V14.00,2013-03-11 11:34:00,
2013-03-11 07:35:00,49.5,47.3,29.60,SSW,206,10.0,14.0,92,0.02,,---,0.03,VWS V14.00,2013-03-11 11:35:00,
2013-03-11 07:38:00,49.5,47.3,29.60,SSE,167,6.0,14.0,92,0.02,,---,0.03,VWS V14.00,2013-03-11 11:38:00,
2013-03-11 07:39:00,49.5,47.3,29.60,SSW,198,9.0,14.0,92,0.02,,---,0.03,VWS V14.00,2013-03-11 11:39:00,
2013-03-11 07:41:00,49.5,47.3,29.60,South,188,6.0,14.0,92,0.02,,---,0.03,VWS V14.00,2013-03-11 11:41:00,
2013-03-11 07:43:00,49.4,47.2,29.60,South,186,2.0,14.0,92,0.02,,---,0.03,VWS V14.00,2013-03-11 11:43:00,
2013-03-11 07:44:00,49.4,47.2,29.60,SSE,157,2.0,14.0,92,0.02,,---,0.03,VWS V14.00,2013-03-11 11:44:00,
2013-03-11 07:46:00,49.4,47.2,29.60,SSW,200,2.0,14.0,92,0.02,,---,0.03,VWS V14.00,2013-03-11 11:46:00,
2013-03-11 07:48:00,49.4,47.2,29.60,South,176,1.0,14.0,92,0.02,,---,0.03,VWS V14.00,2013-03-11 11:48:00,
2013-03-11 07:49:00,49.4,47.2,29.60,South,186,6.0,18.0,92,0.02,,---,0.03,VWS V14.00,2013-03-11 11:49:00,
2013-03-11 07:52:00,49.4,47.2,29.60,South,185,2.0,18.0,92,0.02,,---,0.03,VWS V14.00,2013-03-11 11:52:00,
2013-03-11 07:53:00,49.4,47.2,29.60,SSW,205,4.0,18.0,92,0.02,,---,0.03,VWS V14.00,2013-03-11 11:53:00,
2013-03-11 07:54:00,49.4,47.2,29.60,SSW,192,6.0,18.0,92,0.02,,---,0.03,VWS V14.00,2013-03-11 11:54:00,
2013-03-11 07:57:00,49.4,47.2,29.60,South,184,6.0,18.0,92,0.02,,---,0.03,VWS V14.00,2013-03-11 11:57:00,
2013-03-11 07:58:00,49.2,47.0,29.60,SSW,192,6.0,18.0,92,0.02,,---,0.03,VWS V14.00,2013-03-11 11:58:00,
2013-03-11 08:00:00,49.2,47.0,29.60,South,189,2.0,18.0,92,0.02,,---,0.03,VWS V14.00,2013-03-11 12:00:00,
2013-03-11 08:02:00,49.2,47.0,29.60,SSE,160,6.0,10.0,92,0.01,,---,0.03,VWS V14.00,2013-03-11 12:02:00,
2013-03-11 08:03:00,49.2,47.0,29.60,South,178,2.0,10.0,92,0.01,,---,0.03,VWS V14.00,2013-03-11 12:03:00,
2013-03-11 08:05:00,49.2,47.0,29.60,South,171,2.0,10.0,92,0.01,,---,0.03,VWS V14.00,2013-03-11 12:05:00,
2013-03-11 08:07:00,49.2,47.3,29.60,SSW,198,4.0,14.0,93,0.01,,---,0.03,VWS V14.00,2013-03-11 12:07:00,
2013-03-11 08:08:00,49.2,47.3,29.60,South,188,7.0,14.0,93,0.01,,---,0.03,VWS V14.00,2013-03-11 12:08:00,
2013-03-11 08:10:00,49.1,47.2,29.60,SSE,151,1.0,14.0,93,0.01,,---,0.03,VWS V14.00,2013-03-11 12:10:00,
2013-03-11 08:12:00,49.1,47.2,29.60,SW,219,4.0,14.0,93,0.01,,---,0.03,VWS V14.00,2013-03-11 12:12:00,
2013-03-11 08:13:00,49.1,47.2,29.60,SSW,205,6.0,14.0,93,0.01,,---,0.03,VWS V14.00,2013-03-11 12:13:00,
2013-03-11 08:14:00,49.1,47.2,29.60,South,186,8.0,14.0,93,0.01,,---,0.03,VWS V14.00,2013-03-11 12:14:00,
2013-03-11 08:15:00,49.1,47.2,29.61,SSW,212,9.0,14.0,93,0.01,,---,0.03,VWS V14.00,2013-03-11 12:15:00,
2013-03-11 08:17:00,49.1,47.2,29.61,SW,215,2.0,14.0,93,0.01,,---,0.03,VWS V14.00,2013-03-11 12:17:00,
2013-03-11 08:18:00,49.1,47.2,29.61,SSW,205,2.0,14.0,93,0.01,,---,0.03,VWS V14.00,2013-03-11 12:18:00,
2013-03-11 08:19:00,49.1,47.2,29.61,South,178,6.0,14.0,93,0.01,,---,0.03,VWS V14.00,2013-03-11 12:19:00,
2013-03-11 08:20:00,49.1,47.2,29.61,South,169,2.0,14.0,93,0.01,,---,0.03,VWS V14.00,2013-03-11 12:20:00,
2013-03-11 08:23:00,48.9,47.0,29.61,South,188,7.0,14.0,93,0.01,,---,0.03,VWS V14.00,2013-03-11 12:23:00,
2013-03-11 08:24:00,48.9,47.0,29.61,SSE,158,2.0,14.0,93,0.01,,---,0.03,VWS V14.00,2013-03-11 12:24:00,
2013-03-11 08:25:00,48.9,47.0,29.61,SSW,200,4.0,14.0,93,0.01,,---,0.03,VWS V14.00,2013-03-11 12:25:00,
2013-03-11 08:28:00,48.9,47.0,29.61,SSE,151,0.0,14.0,93,0.01,,---,0.03,VWS V14.00,2013-03-11 12:28:00,
2013-03-11 08:29:00,48.9,47.0,29.61,SSE,151,0.0,14.0,93,0.01,,---,0.03,VWS V14.00,2013-03-11 12:29:00,
2013-03-11 08:30:00,48.9,47.0,29.60,SE,137,0.0,14.0,93,0.01,,---,0.03,VWS V14.00,2013-03-11 12:30:00,
2013-03-11 08:33:00,48.8,46.9,29.60,SSE,151,2.0,14.0,93,0.01,,---,0.03,VWS V14.00,2013-03-11 12:33:00,
2013-03-11 08:34:00,48.8,46.9,29.60,SSE,165,4.0,14.0,93,0.01,,---,0.03,VWS V14.00,2013-03-11 12:34:00,
2013-03-11 08:35:00,48.8,46.9,29.60,South,181,4.0,14.0,93,0.01,,---,0.03,VWS V14.00,2013-03-11 12:35:00,
2013-03-11 08:38:00,48.8,46.9,29.60,SSE,162,6.0,14.0,93,0.02,,---,0.04,VWS V14.00,2013-03-11 12:38:00,
2013-03-11 08:39:00,48.8,46.9,29.60,SSE,160,4.0,14.0,93,0.02,,---,0.04,VWS V14.00,2013-03-11 12:39:00,
2013-03-11 08:40:00,48.8,46.9,29.60,SSW,193,1.0,14.0,93,0.02,,---,0.04,VWS V14.00,2013-03-11 12:40:00,
2013-03-11 08:43:00,48.8,46.9,29.60,South,174,6.0,14.0,93,0.02,,---,0.04,VWS V14.00,2013-03-11 12:43:00,
2013-03-11 08:44:00,48.8,46.9,29.60,SSE,162,6.0,14.0,93,0.02,,---,0.04,VWS V14.00,2013-03-11 12:44:00,
2013-03-11 08:45:00,48.8,47.2,29.60,SE,141,4.0,14.0,94,0.02,,---,0.04,VWS V14.00,2013-03-11 12:45:00,
2013-03-11 08:48:00,48.8,47.2,29.60,SSE,165,6.0,14.0,94,0.02,,---,0.04,VWS V14.00,2013-03-11 12:48:00,
2013-03-11 08:49:00,48.8,47.2,29.60,SSW,199,4.0,14.0,94,0.02,,---,0.04,VWS V14.00,2013-03-11 12:49:00,
2013-03-11 08:50:00,48.8,47.2,29.60,SSE,158,7.0,14.0,94,0.02,,---,0.04,VWS V14.00,2013-03-11 12:50:00,
2013-03-11 08:53:00,48.6,47.0,29.60,SW,229,7.0,14.0,94,0.02,,---,0.04,VWS V14.00,2013-03-11 12:53:00,
2013-03-11 08:54:00,48.8,47.2,29.60,SSW,208,9.0,14.0,94,0.02,,---,0.04,VWS V14.00,2013-03-11 12:54:00,
2013-03-11 08:55:00,48.8,47.2,29.60,SSW,198,4.0,14.0,94,0.02,,---,0.04,VWS V14.00,2013-03-11 12:55:00,
2013-03-11 08:58:00,48.8,47.2,29.60,SSW,192,0.0,14.0,94,0.02,,---,0.04,VWS V14.00,2013-03-11 12:58:00,
2013-03-11 08:59:00,48.8,47.2,29.60,SSW,198,4.0,14.0,94,0.02,,---,0.04,VWS V14.00,2013-03-11 12:59:00,
2013-03-11 09:00:00,48.8,47.2,29.60,SSW,199,2.0,14.0,94,0.02,,---,0.04,VWS V14.00,2013-03-11 13:00:00,
2013-03-11 09:03:00,48.8,47.2,29.60,SSW,203,9.0,9.0,94,0.01,,---,0.04,VWS V14.00,2013-03-11 13:03:00,
2013-03-11 09:04:00,48.8,47.2,29.60,SSW,208,4.0,9.0,94,0.01,,---,0.04,VWS V14.00,2013-03-11 13:04:00,
2013-03-11 09:05:00,48.8,47.2,29.60,SSW,213,2.0,9.0,94,0.01,,---,0.04,VWS V14.00,2013-03-11 13:05:00,
2013-03-11 09:08:00,48.8,47.2,29.60,SSE,161,4.0,9.0,94,0.01,,---,0.04,VWS V14.00,2013-03-11 13:08:00,
2013-03-11 09:10:00,48.8,47.2,29.60,SSW,203,4.0,9.0,94,0.01,,---,0.04,VWS V14.00,2013-03-11 13:10:00,
2013-03-11 09:13:00,48.8,47.2,29.60,SSW,208,6.0,9.0,94,0.01,,---,0.04,VWS V14.00,2013-03-11 13:13:00,
2013-03-11 09:14:00,48.8,47.2,29.60,SSW,206,4.0,9.0,94,0.01,,---,0.04,VWS V14.00,2013-03-11 13:14:00,
2013-03-11 09:15:00,48.8,47.2,29.60,SSW,198,1.0,9.0,94,0.01,,---,0.04,VWS V14.00,2013-03-11 13:15:00,
2013-03-11 09:18:00,48.8,47.2,29.60,South,184,6.0,9.0,94,0.01,,---,0.04,VWS V14.00,2013-03-11 13:18:00,
2013-03-11 09:19:00,48.8,47.2,29.60,South,184,7.0,9.0,94,0.01,,---,0.04,VWS V14.00,2013-03-11 13:19:00,
2013-03-11 09:20:00,48.8,47.2,29.60,South,184,2.0,9.0,94,0.01,,---,0.04,VWS V14.00,2013-03-11 13:20:00,
2013-03-11 09:23:00,48.8,47.2,29.60,SSW,192,2.0,9.0,94,0.01,,---,0.04,VWS V14.00,2013-03-11 13:23:00,
2013-03-11 09:24:00,48.8,47.2,29.60,SSE,158,4.0,9.0,94,0.01,,---,0.04,VWS V14.00,2013-03-11 13:24:00,
2013-03-11 09:25:00,48.8,47.2,29.60,SSE,158,4.0,9.0,94,0.01,,---,0.04,VWS V14.00,2013-03-11 13:25:00,
2013-03-11 09:28:00,48.8,47.2,29.60,SSE,162,1.0,9.0,94,0.01,,---,0.04,VWS V14.00,2013-03-11 13:28:00,
2013-03-11 09:29:00,48.8,47.2,29.60,SSE,147,6.0,9.0,94,0.01,,---,0.04,VWS V14.00,2013-03-11 13:29:00,
2013-03-11 09:30:00,48.8,47.2,29.60,South,174,4.0,9.0,94,0.01,,---,0.04,VWS V14.00,2013-03-11 13:30:00,
2013-03-11 09:33:00,48.8,47.2,29.60,SSW,209,7.0,10.0,94,0.01,,---,0.04,VWS V14.00,2013-03-11 13:33:00,
2013-03-11 09:34:00,48.8,47.2,29.60,SSE,155,6.0,10.0,94,0.01,,---,0.04,VWS V14.00,2013-03-11 13:34:00,
2013-03-11 09:35:00,48.8,47.2,29.60,SSW,206,8.0,10.0,94,0.01,,---,0.04,VWS V14.00,2013-03-11 13:35:00,
2013-03-11 09:38:00,48.8,47.2,29.60,SSE,167,7.0,10.0,94,0.01,,---,0.04,VWS V14.00,2013-03-11 13:38:00,
2013-03-11 09:39:00,48.8,47.2,29.60,SSE,161,4.0,10.0,94,0.01,,---,0.04,VWS V14.00,2013-03-11 13:39:00,
2013-03-11 09:40:00,48.8,47.2,29.60,SSE,168,11.0,13.0,94,0.01,,---,0.04,VWS V14.00,2013-03-11 13:40:00,
2013-03-11 09:44:00,48.9,47.2,29.60,SW,230,7.0,13.0,94,0.01,,---,0.04,VWS V14.00,2013-03-11 13:44:00,
2013-03-11 09:45:00,48.9,47.2,29.59,SSE,147,2.0,14.0,94,0.01,,---,0.04,VWS V14.00,2013-03-11 13:45:00,
2013-03-11 09:46:00,48.9,47.2,29.59,SSE,147,4.0,14.0,94,0.01,,---,0.04,VWS V14.00,2013-03-11 13:46:00,
2013-03-11 09:49:00,48.9,47.0,29.59,South,178,6.0,15.0,93,0.01,,---,0.04,VWS V14.00,2013-03-11 13:49:00,
2013-03-11 09:50:00,48.9,47.0,29.59,SSW,203,7.0,15.0,93,0.01,,---,0.04,VWS V14.00,2013-03-11 13:50:00,
2013-03-11 09:51:00,48.9,47.0,29.59,SSW,213,8.0,15.0,93,0.01,,---,0.04,VWS V14.00,2013-03-11 13:51:00,
2013-03-11 09:54:00,49.1,47.2,29.59,South,182,4.0,15.0,93,0.01,,---,0.04,VWS V14.00,2013-03-11 13:54:00,
2013-03-11 09:55:00,49.2,47.3,29.59,SW,222,6.0,15.0,93,0.01,,---,0.04,VWS V14.00,2013-03-11 13:55:00,
2013-03-11 09:56:00,49.2,47.3,29.59,SSE,158,7.0,15.0,93,0.01,,---,0.04,VWS V14.00,2013-03-11 13:56:00,
2013-03-11 09:59:00,49.4,47.5,29.59,SSW,199,13.0,16.0,93,0.01,,---,0.04,VWS V14.00,2013-03-11 13:59:00,
2013-03-11 10:00:00,49.4,47.5,29.59,SSW,203,7.0,7.0,93,0.00,,---,0.04,VWS V14.00,2013-03-11 14:00:00,
2013-03-11 10:01:00,49.4,47.5,29.59,South,189,1.0,7.0,93,0.00,,---,0.04,VWS V14.00,2013-03-11 14:01:00,
2013-03-11 10:04:00,49.5,47.3,29.59,South,185,4.0,14.0,92,0.00,,---,0.04,VWS V14.00,2013-03-11 14:04:00,
2013-03-11 10:05:00,49.5,47.3,29.59,South,175,7.0,14.0,92,0.00,,---,0.04,VWS V14.00,2013-03-11 14:05:00,
2013-03-11 10:06:00,49.5,47.3,29.59,South,182,2.0,14.0,92,0.00,,---,0.04,VWS V14.00,2013-03-11 14:06:00,
2013-03-11 10:09:00,49.6,47.4,29.59,SE,141,8.0,14.0,92,0.00,,---,0.04,VWS V14.00,2013-03-11 14:09:00,
2013-03-11 10:10:00,49.6,47.4,29.59,SSW,195,10.0,14.0,92,0.00,,---,0.04,VWS V14.00,2013-03-11 14:10:00,
2013-03-11 10:11:00,49.6,47.4,29.59,South,188,8.0,14.0,92,0.00,,---,0.04,VWS V14.00,2013-03-11 14:11:00,
2013-03-11 10:14:00,49.8,47.6,29.59,SSW,206,7.0,14.0,92,0.00,,---,0.04,VWS V14.00,2013-03-11 14:14:00,
2013-03-11 10:15:00,49.8,47.6,29.60,SSW,213,7.0,14.0,92,0.00,,---,0.04,VWS V14.00,2013-03-11 14:15:00,
2013-03-11 10:16:00,49.8,47.3,29.60,SSW,203,8.0,14.0,91,0.00,,---,0.04,VWS V14.00,2013-03-11 14:16:00,
2013-03-11 10:19:00,49.9,47.4,29.60,SSE,157,6.0,14.0,91,0.00,,---,0.04,VWS V14.00,2013-03-11 14:19:00,
2013-03-11 10:20:00,49.9,47.4,29.60,SSE,151,2.0,14.0,91,0.00,,---,0.04,VWS V14.00,2013-03-11 14:20:00,
2013-03-11 10:21:00,49.9,47.4,29.60,SSW,212,7.0,14.0,91,0.00,,---,0.04,VWS V14.00,2013-03-11 14:21:00,
2013-03-11 10:24:00,50.1,47.6,29.60,WSW,243,4.0,14.0,91,0.00,,---,0.04,VWS V14.00,2013-03-11 14:24:00,
2013-03-11 10:25:00,50.1,47.6,29.60,SSW,192,2.0,14.0,91,0.00,,---,0.04,VWS V14.00,2013-03-11 14:25:00,
2013-03-11 10:26:00,50.1,47.6,29.60,SE,141,7.0,14.0,91,0.00,,---,0.04,VWS V14.00,2013-03-11 14:26:00,
2013-03-11 10:27:00,50.1,47.6,29.60,South,175,2.0,14.0,91,0.00,,---,0.04,VWS V14.00,2013-03-11 14:27:00,
2013-03-11 10:29:00,50.1,47.6,29.59,South,191,6.0,14.0,91,0.00,,---,0.04,VWS V14.00,2013-03-11 14:29:00,
2013-03-11 10:30:00,50.1,47.6,29.59,SSW,199,8.0,15.0,91,0.00,,---,0.04,VWS V14.00,2013-03-11 14:30:00,
2013-03-11 10:31:00,50.2,47.7,29.59,SSW,203,9.0,15.0,91,0.00,,---,0.04,VWS V14.00,2013-03-11 14:31:00,
2013-03-11 10:32:00,50.2,47.7,29.59,SW,219,7.0,15.0,91,0.00,,---,0.04,VWS V14.00,2013-03-11 14:32:00,
2013-03-11 10:35:00,50.2,47.7,29.59,SSW,198,7.0,15.0,91,0.00,,---,0.04,VWS V14.00,2013-03-11 14:35:00,
2013-03-11 10:36:00,50.2,47.7,29.59,SSE,155,2.0,15.0,91,0.00,,---,0.04,VWS V14.00,2013-03-11 14:36:00,
2013-03-11 10:37:00,50.4,47.6,29.59,South,185,6.0,15.0,90,0.00,,---,0.04,VWS V14.00,2013-03-11 14:37:00,
2013-03-11 10:40:00,50.4,47.6,29.59,South,182,7.0,15.0,90,0.00,,---,0.04,VWS V14.00,2013-03-11 14:40:00,
2013-03-11 10:42:00,50.4,47.6,29.59,SSW,206,9.0,15.0,90,0.00,,---,0.04,VWS V14.00,2013-03-11 14:42:00,
2013-03-11 10:43:00,50.5,47.7,29.59,SSE,160,8.0,15.0,90,0.00,,---,0.04,VWS V14.00,2013-03-11 14:43:00,
2013-03-11 10:45:00,50.5,47.7,29.58,SSE,164,10.0,16.0,90,0.00,,---,0.04,VWS V14.00,2013-03-11 14:45:00,
2013-03-11 10:47:00,50.7,47.9,29.58,South,178,4.0,16.0,90,0.00,,---,0.04,VWS V14.00,2013-03-11 14:47:00,
2013-03-11 10:48:00,50.7,47.9,29.58,SSW,202,9.0,16.0,90,0.00,,---,0.04,VWS V14.00,2013-03-11 14:48:00,
2013-03-11 10:50:00,50.7,47.9,29.58,SW,217,18.0,25.0,90,0.00,,---,0.04,VWS V14.00,2013-03-11 14:50:00,
2013-03-11 10:52:00,50.8,48.0,29.58,SSE,158,9.0,25.0,90,0.00,,---,0.04,VWS V14.00,2013-03-11 14:52:00,
2013-03-11 10:53:00,50.8,48.0,29.58,South,182,8.0,25.0,90,0.00,,---,0.04,VWS V14.00,2013-03-11 14:53:00,
2013-03-11 10:55:00,50.8,48.0,29.58,SSW,202,11.0,25.0,90,0.00,,---,0.04,VWS V14.00,2013-03-11 14:55:00,
2013-03-11 10:57:00,50.8,48.0,29.58,SW,215,10.0,25.0,90,0.00,,---,0.04,VWS V14.00,2013-03-11 14:57:00,
2013-03-11 10:58:00,50.8,48.0,29.58,SSE,151,7.0,25.0,90,0.00,,---,0.04,VWS V14.00,2013-03-11 14:58:00,
2013-03-11 11:00:00,50.8,48.0,29.58,SSW,213,9.0,25.0,90,0.00,,---,0.04,VWS V14.00,2013-03-11 15:00:00,
2013-03-11 11:01:00,50.8,48.0,29.58,SSE,164,10.0,17.0,90,0.00,,---,0.04,VWS V14.00,2013-03-11 15:01:00,
2013-03-11 11:02:00,50.8,48.0,29.58,SSW,198,10.0,18.0,90,0.00,,---,0.04,VWS V14.00,2013-03-11 15:02:00,
2013-03-11 11:03:00,50.8,48.0,29.58,South,184,15.0,18.0,90,0.00,,---,0.04,VWS V14.00,2013-03-11 15:03:00,
2013-03-11 11:05:00,50.8,48.0,29.58,South,175,7.0,18.0,90,0.00,,---,0.04,VWS V14.00,2013-03-11 15:05:00,
2013-03-11 11:06:00,50.8,48.0,29.58,South,175,13.0,18.0,90,0.00,,---,0.04,VWS V14.00,2013-03-11 15:06:00,
2013-03-11 11:07:00,50.8,48.0,29.58,SSE,151,8.0,18.0,90,0.00,,---,0.04,VWS V14.00,2013-03-11 15:07:00,
2013-03-11 11:08:00,50.8,48.0,29.58,SSW,208,13.0,18.0,90,0.00,,---,0.04,VWS V14.00,2013-03-11 15:08:00,
2013-03-11 11:10:00,50.8,48.0,29.58,SE,144,6.0,18.0,90,0.00,,---,0.04,VWS V14.00,2013-03-11 15:10:00,
2013-03-11 11:11:00,50.7,47.9,29.58,South,181,7.0,18.0,90,0.00,,---,0.04,VWS V14.00,2013-03-11 15:11:00,
2013-03-11 11:12:00,50.7,47.9,29.58,South,188,11.0,18.0,90,0.00,,---,0.04,VWS V14.00,2013-03-11 15:12:00,
2013-03-11 11:13:00,50.7,47.9,29.58,SW,223,9.0,18.0,90,0.00,,---,0.04,VWS V14.00,2013-03-11 15:13:00,
2013-03-11 11:15:00,50.5,47.7,29.57,SW,227,10.0,18.0,90,0.00,,---,0.04,VWS V14.00,2013-03-11 15:15:00,
2013-03-11 11:17:00,50.5,47.7,29.57,SW,223,10.0,18.0,90,0.00,,---,0.04,VWS V14.00,2013-03-11 15:17:00,
2013-03-11 11:18:00,50.5,47.7,29.57,SSW,205,17.0,18.0,90,0.00,,---,0.04,VWS V14.00,2013-03-11 15:18:00,
2013-03-11 11:20:00,50.4,47.6,29.57,SSW,195,16.0,18.0,90,0.00,,---,0.04,VWS V14.00,2013-03-11 15:20:00,
2013-03-11 11:22:00,50.2,47.4,29.57,SW,230,11.0,18.0,90,0.00,,---,0.04,VWS V14.00,2013-03-11 15:22:00,
2013-03-11 11:23:00,50.2,47.4,29.57,SSW,210,14.0,18.0,90,0.00,,---,0.04,VWS V14.00,2013-03-11 15:23:00,
2013-03-11 11:24:00,50.2,47.4,29.57,South,171,16.0,18.0,90,0.00,,---,0.04,VWS V14.00,2013-03-11 15:24:00,
2013-03-11 11:25:00,50.2,47.4,29.57,SSW,203,4.0,18.0,90,0.00,,---,0.04,VWS V14.00,2013-03-11 15:25:00,
2013-03-11 11:27:00,50.1,47.3,29.57,SW,219,6.0,18.0,90,0.00,,---,0.04,VWS V14.00,2013-03-11 15:27:00,
2013-03-11 11:28:00,50.1,47.3,29.57,SSW,196,9.0,18.0,90,0.00,,---,0.04,VWS V14.00,2013-03-11 15:28:00,
2013-03-11 11:29:00,50.1,47.3,29.57,SW,226,4.0,18.0,90,0.00,,---,0.04,VWS V14.00,2013-03-11 15:29:00,
2013-03-11 11:30:00,50.1,47.6,29.57,SSE,151,10.0,18.0,91,0.00,,---,0.04,VWS V14.00,2013-03-11 15:30:00,
2013-03-11 11:32:00,50.1,47.6,29.57,South,189,7.0,18.0,91,0.00,,---,0.04,VWS V14.00,2013-03-11 15:32:00,
2013-03-11 11:34:00,50.1,47.6,29.57,South,188,7.0,18.0,91,0.00,,---,0.04,VWS V14.00,2013-03-11 15:34:00,
2013-03-11 11:35:00,50.1,47.6,29.57,SSW,195,4.0,18.0,91,0.00,,---,0.04,VWS V14.00,2013-03-11 15:35:00,
2013-03-11 11:37:00,50.1,47.6,29.57,South,184,11.0,18.0,91,0.00,,---,0.04,VWS V14.00,2013-03-11 15:37:00,
2013-03-11 11:39:00,50.1,47.6,29.57,SSE,155,6.0,18.0,91,0.00,,---,0.04,VWS V14.00,2013-03-11 15:39:00,
2013-03-11 11:41:00,50.1,47.6,29.57,SSE,158,7.0,18.0,91,0.00,,---,0.04,VWS V14.00,2013-03-11 15:41:00,
2013-03-11 11:42:00,50.1,47.6,29.57,SSW,212,2.0,18.0,91,0.00,,---,0.04,VWS V14.00,2013-03-11 15:42:00,
2013-03-11 11:44:00,50.1,47.6,29.57,SSW,195,6.0,18.0,91,0.00,,---,0.04,VWS V14.00,2013-03-11 15:44:00,
2013-03-11 11:46:00,50.1,47.6,29.55,South,188,14.0,18.0,91,0.00,,---,0.04,VWS V14.00,2013-03-11 15:46:00,
2013-03-11 11:47:00,50.1,47.6,29.55,SE,124,6.0,18.0,91,0.00,,---,0.04,VWS V14.00,2013-03-11 15:47:00,
2013-03-11 11:49:00,50.1,47.6,29.55,South,179,1.0,18.0,91,0.00,,---,0.04,VWS V14.00,2013-03-11 15:49:00,
2013-03-11 11:51:00,50.1,47.6,29.55,South,191,6.0,18.0,91,0.00,,---,0.04,VWS V14.00,2013-03-11 15:51:00,
2013-03-11 11:52:00,50.1,47.6,29.55,SSW,209,9.0,18.0,91,0.00,,---,0.04,VWS V14.00,2013-03-11 15:52:00,
2013-03-11 11:54:00,50.1,47.3,29.55,SE,144,2.0,18.0,90,0.00,,---,0.04,VWS V14.00,2013-03-11 15:54:00,
2013-03-11 11:57:00,50.1,47.3,29.55,South,185,8.0,18.0,90,0.00,,---,0.04,VWS V14.00,2013-03-11 15:57:00,
2013-03-11 11:59:00,50.1,47.3,29.55,SW,219,4.0,18.0,90,0.00,,---,0.04,VWS V14.00,2013-03-11 15:59:00,
2013-03-11 12:02:00,50.2,47.4,29.54,SSW,206,4.0,14.0,90,0.00,,---,0.04,VWS V14.00,2013-03-11 16:02:00,
2013-03-11 12:03:00,50.2,47.4,29.54,South,181,8.0,14.0,90,0.00,,---,0.04,VWS V14.00,2013-03-11 16:03:00,
2013-03-11 12:04:00,50.2,47.4,29.54,SE,144,10.0,15.0,90,0.00,,---,0.04,VWS V14.00,2013-03-11 16:04:00,
2013-03-11 12:07:00,50.2,47.4,29.54,SSW,198,6.0,15.0,90,0.00,,---,0.04,VWS V14.00,2013-03-11 16:07:00,
2013-03-11 12:08:00,50.2,47.4,29.54,South,178,6.0,15.0,90,0.00,,---,0.04,VWS V14.00,2013-03-11 16:08:00,
2013-03-11 12:09:00,50.2,47.4,29.54,SW,219,9.0,15.0,90,0.00,,---,0.04,VWS V14.00,2013-03-11 16:09:00,
2013-03-11 12:10:00,50.2,47.4,29.54,SSW,212,8.0,15.0,90,0.00,,---,0.04,VWS V14.00,2013-03-11 16:10:00,
2013-03-11 12:12:00,50.4,47.6,29.54,SSE,151,10.0,15.0,90,0.00,,---,0.04,VWS V14.00,2013-03-11 16:12:00,
2013-03-11 12:13:00,50.4,47.6,29.54,SSW,205,13.0,15.0,90,0.00,,---,0.04,VWS V14.00,2013-03-11 16:13:00,
2013-03-11 12:14:00,50.4,47.6,29.53,SSE,165,6.0,15.0,90,0.00,,---,0.04,VWS V14.00,2013-03-11 16:14:00,
2013-03-11 12:15:00,50.4,47.6,29.53,South,175,11.0,15.0,90,0.00,,---,0.04,VWS V14.00,2013-03-11 16:15:00,
2013-03-11 12:17:00,50.4,47.3,29.53,SSE,161,11.0,15.0,89,0.00,,---,0.04,VWS V14.00,2013-03-11 16:17:00,
2013-03-11 12:18:00,50.4,47.3,29.53,SSE,162,9.0,15.0,89,0.00,,---,0.04,VWS V14.00,2013-03-11 16:18:00,
2013-03-11 12:19:00,50.5,47.4,29.53,SE,144,4.0,15.0,89,0.00,,---,0.04,VWS V14.00,2013-03-11 16:19:00,
2013-03-11 12:20:00,50.5,47.4,29.53,SE,145,6.0,15.0,89,0.00,,---,0.04,VWS V14.00,2013-03-11 16:20:00,
2013-03-11 12:22:00,50.5,47.4,29.53,SSE,154,10.0,15.0,89,0.01,,---,0.05,VWS V14.00,2013-03-11 16:22:00,
2013-03-11 12:24:00,50.5,47.4,29.53,SE,131,10.0,16.0,89,0.01,,---,0.05,VWS V14.00,2013-03-11 16:24:00,
2013-03-11 12:25:00,50.5,47.4,29.53,SSE,150,6.0,16.0,89,0.01,,---,0.05,VWS V14.00,2013-03-11 16:25:00,
2013-03-11 12:28:00,50.5,47.4,29.53,SSW,202,11.0,16.0,89,0.01,,---,0.05,VWS V14.00,2013-03-11 16:28:00,
2013-03-11 12:29:00,50.5,47.4,29.53,South,174,2.0,16.0,89,0.01,,---,0.05,VWS V14.00,2013-03-11 16:29:00,
2013-03-11 12:30:00,50.5,47.4,29.52,SSE,165,4.0,16.0,89,0.01,,---,0.05,VWS V14.00,2013-03-11 16:30:00,
2013-03-11 12:33:00,50.5,47.7,29.52,SSE,160,8.0,16.0,90,0.01,,---,0.05,VWS V14.00,2013-03-11 16:33:00,
2013-03-11 12:34:00,50.5,47.7,29.52,SSE,168,4.0,16.0,90,0.01,,---,0.05,VWS V14.00,2013-03-11 16:34:00,
2013-03-11 12:35:00,50.5,47.7,29.52,South,174,2.0,16.0,90,0.01,,---,0.05,VWS V14.00,2013-03-11 16:35:00,
2013-03-11 12:38:00,50.5,47.7,29.52,SSE,160,6.0,16.0,90,0.01,,---,0.05,VWS V14.00,2013-03-11 16:38:00,
2013-03-11 12:39:00,50.5,47.7,29.52,South,172,7.0,17.0,90,0.01,,---,0.05,VWS V14.00,2013-03-11 16:39:00,
2013-03-11 12:40:00,50.5,47.7,29.52,SE,141,7.0,17.0,90,0.01,,---,0.05,VWS V14.00,2013-03-11 16:40:00,
2013-03-11 12:43:00,50.4,47.6,29.52,SE,141,16.0,17.0,90,0.01,,---,0.05,VWS V14.00,2013-03-11 16:43:00,
2013-03-11 12:44:00,50.4,47.6,29.52,South,189,7.0,17.0,90,0.01,,---,0.05,VWS V14.00,2013-03-11 16:44:00,
2013-03-11 12:45:00,50.4,47.6,29.51,SE,138,10.0,17.0,90,0.01,,---,0.05,VWS V14.00,2013-03-11 16:45:00,
2013-03-11 12:48:00,50.4,47.3,29.51,SSE,167,4.0,17.0,89,0.01,,---,0.05,VWS V14.00,2013-03-11 16:48:00,
2013-03-11 12:49:00,50.4,47.3,29.51,SSE,151,4.0,17.0,89,0.01,,---,0.05,VWS V14.00,2013-03-11 16:49:00,
2013-03-11 12:50:00,50.4,47.3,29.51,SE,143,11.0,17.0,89,0.01,,---,0.05,VWS V14.00,2013-03-11 16:50:00,
2013-03-11 12:53:00,50.4,47.3,29.51,SSE,151,7.0,17.0,89,0.01,,---,0.05,VWS V14.00,2013-03-11 16:53:00,
2013-03-11 12:54:00,50.4,47.3,29.51,SSE,150,8.0,17.0,89,0.01,,---,0.05,VWS V14.00,2013-03-11 16:54:00,
2013-03-11 12:55:00,50.4,47.3,29.51,SSE,147,8.0,17.0,89,0.01,,---,0.05,VWS V14.00,2013-03-11 16:55:00,
2013-03-11 12:58:00,50.4,47.3,29.51,SE,141,7.0,17.0,89,0.01,,---,0.05,VWS V14.00,2013-03-11 16:58:00,
2013-03-11 12:59:00,50.4,47.3,29.51,SSE,147,2.0,17.0,89,0.01,,---,0.05,VWS V14.00,2013-03-11 16:59:00,
2013-03-11 13:00:00,50.4,47.3,29.51,South,188,10.0,17.0,89,0.01,,---,0.05,VWS V14.00,2013-03-11 17:00:00,
2013-03-11 13:03:00,50.5,47.4,29.51,SW,216,16.0,16.0,89,0.01,,---,0.05,VWS V14.00,2013-03-11 17:03:00,
2013-03-11 13:04:00,50.5,47.1,29.51,SSE,157,10.0,16.0,88,0.01,,---,0.05,VWS V14.00,2013-03-11 17:04:00,
2013-03-11 13:05:00,50.5,47.1,29.51,SSE,155,7.0,16.0,88,0.01,,---,0.05,VWS V14.00,2013-03-11 17:05:00,
2013-03-11 13:08:00,50.5,47.1,29.51,SE,130,6.0,16.0,88,0.01,,---,0.05,VWS V14.00,2013-03-11 17:08:00,
2013-03-11 13:09:00,50.5,47.1,29.51,SSE,168,11.0,16.0,88,0.01,,---,0.05,VWS V14.00,2013-03-11 17:09:00,
2013-03-11 13:10:00,50.7,47.0,29.51,SE,140,6.0,16.0,87,0.01,,---,0.05,VWS V14.00,2013-03-11 17:10:00,
2013-03-11 13:13:00,50.7,47.0,29.51,South,172,4.0,16.0,87,0.01,,---,0.05,VWS V14.00,2013-03-11 17:13:00,
2013-03-11 13:14:00,50.7,47.0,29.50,SSE,164,2.0,16.0,87,0.01,,---,0.05,VWS V14.00,2013-03-11 17:14:00,
2013-03-11 13:15:00,50.7,47.0,29.50,SSE,151,6.0,16.0,87,0.01,,---,0.05,VWS V14.00,2013-03-11 17:15:00,
2013-03-11 13:19:00,50.7,47.0,29.50,SSE,158,7.0,16.0,87,0.01,,---,0.05,VWS V14.00,2013-03-11 17:19:00,
2013-03-11 13:20:00,50.7,47.0,29.50,SE,134,8.0,16.0,87,0.01,,---,0.05,VWS V14.00,2013-03-11 17:20:00,
2013-03-11 13:24:00,50.7,46.7,29.50,SE,145,2.0,16.0,86,0.01,,---,0.05,VWS V14.00,2013-03-11 17:24:00,
2013-03-11 13:25:00,50.7,46.7,29.50,SSE,148,4.0,16.0,86,0.01,,---,0.05,VWS V14.00,2013-03-11 17:25:00,
2013-03-11 13:26:00,50.7,46.7,29.50,SSE,148,4.0,16.0,86,0.01,,---,0.05,VWS V14.00,2013-03-11 17:26:00,
2013-03-11 13:29:00,50.7,46.7,29.50,SE,141,13.0,16.0,86,0.02,,---,0.06,VWS V14.00,2013-03-11 17:29:00,
2013-03-11 13:30:00,50.7,46.7,29.49,SE,141,14.0,17.0,86,0.02,,---,0.06,VWS V14.00,2013-03-11 17:30:00,
2013-03-11 13:31:00,50.5,46.5,29.49,SSE,147,1.0,17.0,86,0.02,,---,0.06,VWS V14.00,2013-03-11 17:31:00,
2013-03-11 13:34:00,50.5,46.5,29.49,SE,140,2.0,17.0,86,0.02,,---,0.06,VWS V14.00,2013-03-11 17:34:00,
2013-03-11 13:35:00,50.5,46.5,29.49,SSE,158,4.0,17.0,86,0.02,,---,0.06,VWS V14.00,2013-03-11 17:35:00,
2013-03-11 13:36:00,50.5,46.5,29.49,SSE,155,1.0,17.0,86,0.02,,---,0.06,VWS V14.00,2013-03-11 17:36:00,
2013-03-11 13:37:00,50.5,46.5,29.49,SE,138,8.0,17.0,86,0.02,,---,0.06,VWS V14.00,2013-03-11 17:37:00,
2013-03-11 13:39:00,50.5,46.5,29.49,SSW,200,4.0,17.0,86,0.02,,---,0.06,VWS V14.00,2013-03-11 17:39:00,
2013-03-11 13:40:00,50.5,46.5,29.49,SSE,157,6.0,17.0,86,0.02,,---,0.06,VWS V14.00,2013-03-11 17:40:00,
2013-03-11 13:41:00,50.7,46.7,29.49,SSE,157,1.0,17.0,86,0.02,,---,0.06,VWS V14.00,2013-03-11 17:41:00,
2013-03-11 13:42:00,50.7,46.7,29.49,South,184,8.0,17.0,86,0.02,,---,0.06,VWS V14.00,2013-03-11 17:42:00,
2013-03-11 13:45:00,50.7,46.7,29.47,SSE,162,4.0,17.0,86,0.02,,---,0.06,VWS V14.00,2013-03-11 17:45:00,
2013-03-11 13:46:00,50.7,46.7,29.47,SSE,147,9.0,17.0,86,0.02,,---,0.06,VWS V14.00,2013-03-11 17:46:00,
2013-03-11 13:47:00,50.8,46.8,29.47,SE,136,1.0,17.0,86,0.02,,---,0.06,VWS V14.00,2013-03-11 17:47:00,
2013-03-11 13:50:00,50.8,46.8,29.47,SSW,209,9.0,17.0,86,0.02,,---,0.06,VWS V14.00,2013-03-11 17:50:00,
2013-03-11 13:52:00,50.8,46.8,29.47,SSE,162,8.0,17.0,86,0.02,,---,0.06,VWS V14.00,2013-03-11 17:52:00,
2013-03-11 13:55:00,51.0,46.7,29.47,SE,140,2.0,17.0,85,0.03,,---,0.07,VWS V14.00,2013-03-11 17:55:00,
2013-03-11 13:57:00,51.0,46.7,29.47,SSE,165,6.0,17.0,85,0.03,,---,0.07,VWS V14.00,2013-03-11 17:57:00,
2013-03-11 13:58:00,51.0,46.7,29.47,SW,215,15.0,17.0,85,0.03,,---,0.07,VWS V14.00,2013-03-11 17:58:00,
2013-03-11 14:00:00,50.8,46.5,29.47,SSE,148,6.0,17.0,85,0.03,,---,0.07,VWS V14.00,2013-03-11 18:00:00,
2013-03-11 14:02:00,50.8,46.5,29.47,SE,133,8.0,9.0,85,0.03,,---,0.08,VWS V14.00,2013-03-11 18:02:00,
2013-03-11 14:03:00,50.8,46.5,29.47,SSE,155,6.0,10.0,85,0.03,,---,0.08,VWS V14.00,2013-03-11 18:03:00,
2013-03-11 14:05:00,50.8,46.8,29.47,SSE,147,4.0,10.0,86,0.03,,---,0.08,VWS V14.00,2013-03-11 18:05:00,
2013-03-11 14:07:00,50.8,46.8,29.47,SE,143,11.0,11.0,86,0.03,,---,0.08,VWS V14.00,2013-03-11 18:07:00,
2013-03-11 14:08:00,50.8,46.8,29.47,SSE,160,7.0,11.0,86,0.03,,---,0.08,VWS V14.00,2013-03-11 18:08:00,
2013-03-11 14:10:00,50.8,46.8,29.47,SE,145,6.0,11.0,86,0.03,,---,0.08,VWS V14.00,2013-03-11 18:10:00,
2013-03-11 14:12:00,50.8,46.8,29.47,South,179,2.0,11.0,86,0.03,,---,0.08,VWS V14.00,2013-03-11 18:12:00,
2013-03-11 14:13:00,50.8,46.8,29.47,SSW,205,2.0,11.0,86,0.03,,---,0.08,VWS V14.00,2013-03-11 18:13:00,
2013-03-11 14:15:00,50.8,46.8,29.45,SSE,154,13.0,13.0,86,0.03,,---,0.08,VWS V14.00,2013-03-11 18:15:00,
2013-03-11 14:17:00,50.8,46.8,29.45,SSW,192,8.0,15.0,86,0.03,,---,0.08,VWS V14.00,2013-03-11 18:17:00,
2013-03-11 14:18:00,50.8,46.8,29.45,SSE,150,6.0,15.0,86,0.03,,---,0.08,VWS V14.00,2013-03-11 18:18:00,
2013-03-11 14:20:00,50.8,46.8,29.45,SSE,154,7.0,16.0,86,0.04,,---,0.09,VWS V14.00,2013-03-11 18:20:00,
2013-03-11 14:21:00,50.8,46.8,29.45,SSE,157,2.0,16.0,86,0.04,,---,0.09,VWS V14.00,2013-03-11 18:21:00,
2013-03-11 14:22:00,50.8,46.8,29.45,ESE,109,9.0,16.0,86,0.04,,---,0.09,VWS V14.00,2013-03-11 18:22:00,
2013-03-11 14:23:00,50.8,46.8,29.45,SSE,151,1.0,16.0,86,0.04,,---,0.09,VWS V14.00,2013-03-11 18:23:00,
2013-03-11 14:25:00,50.7,47.0,29.45,SE,145,7.0,16.0,87,0.04,,---,0.09,VWS V14.00,2013-03-11 18:25:00,
2013-03-11 14:26:00,50.7,47.0,29.45,SE,140,8.0,16.0,87,0.05,,---,0.10,VWS V14.00,2013-03-11 18:26:00,
2013-03-11 14:27:00,50.7,47.0,29.45,SSE,157,8.0,16.0,87,0.05,,---,0.10,VWS V14.00,2013-03-11 18:27:00,
2013-03-11 14:28:00,50.7,47.0,29.45,SSW,198,8.0,16.0,87,0.05,,---,0.10,VWS V14.00,2013-03-11 18:28:00,
2013-03-11 14:30:00,50.5,46.8,29.44,SSE,155,2.0,16.0,87,0.05,,---,0.10,VWS V14.00,2013-03-11 18:30:00,
2013-03-11 14:31:00,50.5,46.8,29.44,SE,137,8.0,16.0,87,0.05,,---,0.10,VWS V14.00,2013-03-11 18:31:00,
2013-03-11 14:32:00,50.5,47.1,29.44,SE,143,8.0,18.0,88,0.06,,---,0.11,VWS V14.00,2013-03-11 18:32:00,
2013-03-11 14:33:00,50.5,47.1,29.44,SSE,150,9.0,18.0,88,0.06,,---,0.11,VWS V14.00,2013-03-11 18:33:00,
2013-03-11 14:35:00,50.5,47.1,29.44,SSE,160,4.0,18.0,88,0.06,,---,0.11,VWS V14.00,2013-03-11 18:35:00,
2013-03-11 14:37:00,50.5,47.1,29.44,SE,141,6.0,18.0,88,0.06,,---,0.11,VWS V14.00,2013-03-11 18:37:00,
2013-03-11 14:38:00,50.4,47.0,29.44,SSE,162,13.0,22.0,88,0.06,,---,0.11,VWS V14.00,2013-03-11 18:38:00,
2013-03-11 14:40:00,50.4,47.3,29.44,SSE,164,9.0,22.0,89,0.07,,---,0.12,VWS V14.00,2013-03-11 18:40:00,
2013-03-11 14:42:00,50.4,47.3,29.44,SSE,160,4.0,22.0,89,0.07,,---,0.12,VWS V14.00,2013-03-11 18:42:00,
2013-03-11 14:43:00,50.4,47.3,29.44,SSE,157,6.0,22.0,89,0.07,,---,0.12,VWS V14.00,2013-03-11 18:43:00,
2013-03-11 14:45:00,50.4,47.3,29.43,South,186,6.0,22.0,89,0.07,,---,0.12,VWS V14.00,2013-03-11 18:45:00,
2013-03-11 14:47:00,50.4,47.3,29.43,SSE,155,6.0,22.0,89,0.07,,---,0.12,VWS V14.00,2013-03-11 18:47:00,
2013-03-11 14:48:00,50.2,47.1,29.43,SSE,157,4.0,22.0,89,0.07,,---,0.12,VWS V14.00,2013-03-11 18:48:00,
2013-03-11 14:50:00,50.2,47.1,29.43,SSW,209,7.0,22.0,89,0.07,,---,0.12,VWS V14.00,2013-03-11 18:50:00,
2013-03-11 14:52:00,50.2,47.4,29.43,SSE,154,7.0,22.0,90,0.08,,---,0.13,VWS V14.00,2013-03-11 18:52:00,
2013-03-11 14:53:00,50.2,47.4,29.43,SSW,206,14.0,22.0,90,0.08,,---,0.13,VWS V14.00,2013-03-11 18:53:00,
2013-03-11 14:54:00,50.2,47.4,29.43,South,182,6.0,22.0,90,0.08,,---,0.13,VWS V14.00,2013-03-11 18:54:00,
2013-03-11 14:55:00,50.1,47.3,29.43,South,182,8.0,22.0,90,0.08,,---,0.13,VWS V14.00,2013-03-11 18:55:00,
2013-03-11 14:57:00,50.1,47.3,29.43,SSE,155,7.0,22.0,90,0.09,,---,0.14,VWS V14.00,2013-03-11 18:57:00,
2013-03-11 14:59:00,50.1,47.3,29.43,SE,140,10.0,22.0,90,0.09,,---,0.14,VWS V14.00,2013-03-11 18:59:00,
2013-03-11 15:01:00,50.1,47.3,29.42,West,263,7.0,13.0,90,0.07,,---,0.14,VWS V14.00,2013-03-11 19:01:00,
2013-03-11 15:02:00,49.9,47.1,29.42,South,178,7.0,13.0,90,0.07,,---,0.14,VWS V14.00,2013-03-11 19:02:00,
2013-03-11 15:04:00,49.9,47.1,29.42,SSE,154,6.0,17.0,90,0.08,,---,0.15,VWS V14.00,2013-03-11 19:04:00,
2013-03-11 15:06:00,49.9,47.4,29.42,SE,140,10.0,17.0,91,0.08,,---,0.15,VWS V14.00,2013-03-11 19:06:00,
2013-03-11 15:08:00,49.9,47.4,29.42,SSE,160,9.0,17.0,91,0.08,,---,0.15,VWS V14.00,2013-03-11 19:08:00,
2013-03-11 15:09:00,49.9,47.4,29.42,SSE,155,6.0,17.0,91,0.09,,---,0.16,VWS V14.00,2013-03-11 19:09:00,
2013-03-11 15:11:00,49.9,47.4,29.42,SSE,158,4.0,17.0,91,0.09,,---,0.16,VWS V14.00,2013-03-11 19:11:00,
2013-03-11 15:13:00,49.9,47.4,29.42,SSW,192,8.0,17.0,91,0.09,,---,0.16,VWS V14.00,2013-03-11 19:13:00,
2013-03-11 15:14:00,49.9,47.4,29.42,South,172,8.0,17.0,91,0.09,,---,0.16,VWS V14.00,2013-03-11 19:14:00,
2013-03-11 15:16:00,49.9,47.4,29.41,SE,145,10.0,17.0,91,0.09,,---,0.16,VWS V14.00,2013-03-11 19:16:00,
2013-03-11 15:18:00,49.9,47.4,29.41,SSW,202,6.0,17.0,91,0.09,,---,0.16,VWS V14.00,2013-03-11 19:18:00,
2013-03-11 15:19:00,49.9,47.4,29.41,SSW,198,7.0,17.0,91,0.10,,---,0.17,VWS V14.00,2013-03-11 19:19:00,
2013-03-11 15:22:00,49.9,47.4,29.41,SE,145,9.0,17.0,91,0.10,,---,0.17,VWS V14.00,2013-03-11 19:22:00,
2013-03-11 15:23:00,49.9,47.4,29.41,South,169,13.0,17.0,91,0.10,,---,0.17,VWS V14.00,2013-03-11 19:23:00,
2013-03-11 15:24:00,49.9,47.4,29.41,South,175,8.0,17.0,91,0.10,,---,0.17,VWS V14.00,2013-03-11 19:24:00,
2013-03-11 15:27:00,49.9,47.7,29.41,SE,144,4.0,17.0,92,0.10,,---,0.17,VWS V14.00,2013-03-11 19:27:00,
2013-03-11 15:28:00,49.9,47.7,29.41,SSW,202,13.0,17.0,92,0.11,,---,0.18,VWS V14.00,2013-03-11 19:28:00,
2013-03-11 15:29:00,49.9,47.7,29.41,SSW,195,11.0,20.0,92,0.11,,---,0.18,VWS V14.00,2013-03-11 19:29:00,
2013-03-11 15:30:00,49.9,47.7,29.40,SSE,161,4.0,20.0,92,0.11,,---,0.18,VWS V14.00,2013-03-11 19:30:00,
2013-03-11 15:32:00,49.9,47.7,29.40,SW,230,13.0,20.0,92,0.11,,---,0.18,VWS V14.00,2013-03-11 19:32:00,
2013-03-11 15:33:00,49.9,47.7,29.40,SSW,192,11.0,20.0,92,0.12,,---,0.19,VWS V14.00,2013-03-11 19:33:00,
2013-03-11 15:34:00,49.8,47.6,29.40,SE,145,16.0,21.0,92,0.12,,---,0.19,VWS V14.00,2013-03-11 19:34:00,
2013-03-11 15:35:00,49.8,47.6,29.40,SSE,164,4.0,21.0,92,0.12,,---,0.19,VWS V14.00,2013-03-11 19:35:00,
2013-03-11 15:37:00,49.8,47.6,29.40,SSW,205,8.0,21.0,92,0.12,,---,0.19,VWS V14.00,2013-03-11 19:37:00,
2013-03-11 15:39:00,49.8,47.6,29.40,SSE,157,15.0,21.0,92,0.13,,---,0.20,VWS V14.00,2013-03-11 19:39:00,
2013-03-11 15:40:00,49.8,47.6,29.40,SW,219,15.0,21.0,92,0.13,,---,0.20,VWS V14.00,2013-03-11 19:40:00,
2013-03-11 15:42:00,49.8,47.6,29.40,South,185,9.0,21.0,92,0.14,,---,0.21,VWS V14.00,2013-03-11 19:42:00,
2013-03-11 15:44:00,49.8,47.6,29.40,SW,226,4.0,21.0,92,0.14,,---,0.21,VWS V14.00,2013-03-11 19:44:00,
2013-03-11 15:45:00,49.8,47.6,29.38,SSE,160,6.0,21.0,92,0.14,,---,0.21,VWS V14.00,2013-03-11 19:45:00,
2013-03-11 15:47:00,49.6,47.4,29.38,SSE,151,6.0,21.0,92,0.14,,---,0.21,VWS V14.00,2013-03-11 19:47:00,
2013-03-11 15:49:00,49.6,47.4,29.38,SW,227,2.0,21.0,92,0.14,,---,0.21,VWS V14.00,2013-03-11 19:49:00,
2013-03-11 15:50:00,49.6,47.4,29.38,SW,233,8.0,21.0,92,0.14,,---,0.21,VWS V14.00,2013-03-11 19:50:00,
2013-03-11 15:52:00,49.5,47.3,29.38,SSW,208,13.0,21.0,92,0.15,,---,0.22,VWS V14.00,2013-03-11 19:52:00,
2013-03-11 15:54:00,49.5,47.3,29.38,SW,230,18.0,21.0,92,0.16,,---,0.23,VWS V14.00,2013-03-11 19:54:00,
2013-03-11 15:55:00,49.5,47.3,29.38,SSW,213,16.0,21.0,92,0.17,,---,0.24,VWS V14.00,2013-03-11 19:55:00,
2013-03-11 15:57:00,49.5,47.3,29.38,SW,223,10.0,21.0,92,0.17,,---,0.24,VWS V14.00,2013-03-11 19:57:00,
2013-03-11 15:59:00,49.5,47.3,29.38,SSW,208,14.0,21.0,92,0.18,,---,0.25,VWS V14.00,2013-03-11 19:59:00,
2013-03-11 16:00:00,49.5,47.3,29.38,South,182,10.0,21.0,92,0.18,,---,0.25,VWS V14.00,2013-03-11 20:00:00,
2013-03-11 16:02:00,49.5,47.3,29.38,SSW,205,8.0,15.0,92,0.11,,---,0.25,VWS V14.00,2013-03-11 20:02:00,
2013-03-11 16:04:00,49.5,47.3,29.38,SSW,206,9.0,15.0,92,0.11,,---,0.25,VWS V14.00,2013-03-11 20:04:00,
2013-03-11 16:05:00,49.5,47.3,29.38,WSW,250,4.0,15.0,92,0.11,,---,0.25,VWS V14.00,2013-03-11 20:05:00,
2013-03-11 16:07:00,49.5,47.3,29.38,SW,223,8.0,15.0,92,0.11,,---,0.25,VWS V14.00,2013-03-11 20:07:00,
2013-03-11 16:09:00,49.5,47.3,29.38,SW,224,9.0,20.0,92,0.12,,---,0.26,VWS V14.00,2013-03-11 20:09:00,
2013-03-11 16:10:00,49.5,47.6,29.38,SW,236,11.0,20.0,93,0.12,,---,0.26,VWS V14.00,2013-03-11 20:10:00,
2013-03-11 16:12:00,49.5,47.6,29.38,SSW,210,8.0,20.0,93,0.12,,---,0.26,VWS V14.00,2013-03-11 20:12:00,
2013-03-11 16:14:00,49.5,47.6,29.40,SSW,205,9.0,20.0,93,0.12,,---,0.26,VWS V14.00,2013-03-11 20:14:00,
2013-03-11 16:15:00,49.5,47.6,29.40,SW,216,9.0,20.0,93,0.12,,---,0.26,VWS V14.00,2013-03-11 20:15:00,
2013-03-11 16:17:00,49.5,47.6,29.40,SSW,202,10.0,20.0,93,0.12,,---,0.26,VWS V14.00,2013-03-11 20:17:00,
2013-03-11 16:19:00,49.5,47.6,29.40,SSW,205,11.0,20.0,93,0.12,,---,0.26,VWS V14.00,2013-03-11 20:19:00,
2013-03-11 16:20:00,49.5,47.6,29.40,SSW,210,11.0,20.0,93,0.12,,---,0.26,VWS V14.00,2013-03-11 20:20:00,
2013-03-11 16:23:00,49.5,47.6,29.40,SW,220,11.0,20.0,93,0.13,,---,0.27,VWS V14.00,2013-03-11 20:23:00,
2013-03-11 16:24:00,49.5,47.6,29.40,SW,216,8.0,21.0,93,0.13,,---,0.27,VWS V14.00,2013-03-11 20:24:00,
2013-03-11 16:25:00,49.5,47.6,29.40,SW,224,11.0,21.0,93,0.13,,---,0.27,VWS V14.00,2013-03-11 20:25:00,
2013-03-11 16:28:00,49.5,47.6,29.40,SSW,210,8.0,21.0,93,0.13,,---,0.27,VWS V14.00,2013-03-11 20:28:00,
2013-03-11 16:29:00,49.5,47.6,29.40,SW,227,9.0,21.0,93,0.13,,---,0.27,VWS V14.00,2013-03-11 20:29:00,
2013-03-11 16:30:00,49.4,47.5,29.40,WNW,294,9.0,21.0,93,0.13,,---,0.27,VWS V14.00,2013-03-11 20:30:00,
2013-03-11 16:33:00,49.4,47.5,29.40,SW,227,8.0,21.0,93,0.14,,---,0.28,VWS V14.00,2013-03-11 20:33:00,
2013-03-11 16:34:00,49.4,47.5,29.40,SW,234,7.0,21.0,93,0.14,,---,0.28,VWS V14.00,2013-03-11 20:34:00,
2013-03-11 16:35:00,49.4,47.5,29.40,WNW,285,6.0,21.0,93,0.14,,---,0.28,VWS V14.00,2013-03-11 20:35:00,
2013-03-11 16:36:00,49.4,47.5,29.40,WSW,240,13.0,21.0,93,0.14,,---,0.28,VWS V14.00,2013-03-11 20:36:00,
2013-03-11 16:38:00,49.4,47.5,29.40,SW,220,8.0,21.0,93,0.14,,---,0.28,VWS V14.00,2013-03-11 20:38:00,
2013-03-11 16:40:00,49.2,47.3,29.40,SW,226,6.0,21.0,93,0.14,,---,0.28,VWS V14.00,2013-03-11 20:40:00,
2013-03-11 16:41:00,49.2,47.3,29.40,WNW,299,8.0,21.0,93,0.14,,---,0.28,VWS V14.00,2013-03-11 20:41:00,
2013-03-11 16:44:00,49.1,47.2,29.40,West,271,8.0,21.0,93,0.14,,---,0.28,VWS V14.00,2013-03-11 20:44:00,
2013-03-11 16:45:00,49.1,47.2,29.41,SW,230,9.0,21.0,93,0.14,,---,0.28,VWS V14.00,2013-03-11 20:45:00,
2013-03-11 16:46:00,48.9,47.0,29.41,WSW,251,13.0,21.0,93,0.14,,---,0.28,VWS V14.00,2013-03-11 20:46:00,
2013-03-11 16:47:00,48.9,46.7,29.41,WNW,298,14.0,21.0,92,0.14,,---,0.28,VWS V14.00,2013-03-11 20:47:00,
2013-03-11 16:49:00,48.8,46.6,29.41,WSW,250,6.0,21.0,92,0.14,,---,0.28,VWS V14.00,2013-03-11 20:49:00,
2013-03-11 16:50:00,48.8,46.6,29.41,SW,224,7.0,21.0,92,0.14,,---,0.28,VWS V14.00,2013-03-11 20:50:00,
2013-03-11 16:51:00,48.6,46.4,29.41,SSW,203,11.0,21.0,92,0.14,,---,0.28,VWS V14.00,2013-03-11 20:51:00,
2013-03-11 16:52:00,48.6,46.4,29.41,West,280,9.0,21.0,92,0.14,,---,0.28,VWS V14.00,2013-03-11 20:52:00,
2013-03-11 16:54:00,48.6,46.4,29.41,SW,226,7.0,21.0,92,0.14,,---,0.28,VWS V14.00,2013-03-11 20:54:00,
2013-03-11 16:55:00,48.6,46.4,29.41,SW,219,11.0,21.0,92,0.14,,---,0.28,VWS V14.00,2013-03-11 20:55:00,
2013-03-11 16:56:00,48.6,46.4,29.41,SSW,213,7.0,21.0,92,0.14,,---,0.28,VWS V14.00,2013-03-11 20:56:00,
2013-03-11 16:57:00,48.6,46.4,29.41,SSW,192,10.0,21.0,92,0.14,,---,0.28,VWS V14.00,2013-03-11 20:57:00,
2013-03-11 16:59:00,48.6,46.4,29.41,SW,226,9.0,21.0,92,0.15,,---,0.29,VWS V14.00,2013-03-11 20:59:00,
2013-03-11 17:00:00,48.5,46.3,29.42,SW,232,9.0,21.0,92,0.15,,---,0.29,VWS V14.00,2013-03-11 21:00:00,
2013-03-11 17:02:00,48.5,46.3,29.42,SSW,209,16.0,22.0,92,0.04,,---,0.29,VWS V14.00,2013-03-11 21:02:00,
2013-03-11 17:04:00,48.2,46.0,29.42,WSW,246,15.0,22.0,92,0.04,,---,0.29,VWS V14.00,2013-03-11 21:04:00,
2013-03-11 17:05:00,48.2,46.0,29.42,SW,234,13.0,22.0,92,0.04,,---,0.29,VWS V14.00,2013-03-11 21:05:00,
2013-03-11 17:07:00,48.2,46.0,29.42,SW,219,7.0,22.0,92,0.04,,---,0.29,VWS V14.00,2013-03-11 21:07:00,
2013-03-11 17:08:00,48.0,45.8,29.42,SW,230,10.0,22.0,92,0.05,,---,0.30,VWS V14.00,2013-03-11 21:08:00,
2013-03-11 17:09:00,48.0,45.8,29.42,West,268,7.0,22.0,92,0.05,,---,0.30,VWS V14.00,2013-03-11 21:09:00,
2013-03-11 17:10:00,48.0,45.5,29.42,WNW,289,7.0,22.0,91,0.05,,---,0.30,VWS V14.00,2013-03-11 21:10:00,
2013-03-11 17:12:00,47.9,45.4,29.42,SW,227,10.0,22.0,91,0.05,,---,0.30,VWS V14.00,2013-03-11 21:12:00,
2013-03-11 17:13:00,47.9,45.4,29.42,WSW,237,9.0,22.0,91,0.05,,---,0.30,VWS V14.00,2013-03-11 21:13:00,
2013-03-11 17:14:00,47.9,45.4,29.42,SW,229,11.0,22.0,91,0.05,,---,0.30,VWS V14.00,2013-03-11 21:14:00,
2013-03-11 17:15:00,47.9,45.4,29.42,SW,219,9.0,22.0,91,0.05,,---,0.30,VWS V14.00,2013-03-11 21:15:00,
2013-03-11 17:17:00,47.7,45.2,29.42,WSW,237,8.0,22.0,91,0.05,,---,0.30,VWS V14.00,2013-03-11 21:17:00,
2013-03-11 17:18:00,47.7,45.2,29.42,SW,236,13.0,22.0,91,0.05,,---,0.30,VWS V14.00,2013-03-11 21:18:00,
2013-03-11 17:19:00,47.7,45.2,29.42,SW,226,8.0,22.0,91,0.05,,---,0.30,VWS V14.00,2013-03-11 21:19:00,
2013-03-11 17:20:00,47.7,45.2,29.42,WSW,244,10.0,22.0,91,0.05,,---,0.30,VWS V14.00,2013-03-11 21:20:00,
2013-03-11 17:22:00,47.6,45.1,29.42,SW,224,10.0,22.0,91,0.05,,---,0.30,VWS V14.00,2013-03-11 21:22:00,
2013-03-11 17:23:00,47.6,45.1,29.42,SW,233,17.0,22.0,91,0.05,,---,0.30,VWS V14.00,2013-03-11 21:23:00,
2013-03-11 17:24:00,47.6,44.8,29.42,SW,223,9.0,22.0,90,0.05,,---,0.30,VWS V14.00,2013-03-11 21:24:00,
2013-03-11 17:26:00,47.4,44.6,29.42,SW,219,9.0,22.0,90,0.05,,---,0.30,VWS V14.00,2013-03-11 21:26:00,
2013-03-11 17:27:00,47.7,44.9,29.42,West,263,6.0,22.0,90,0.05,,---,0.30,VWS V14.00,2013-03-11 21:27:00,
2013-03-11 17:28:00,47.9,45.1,29.42,SSW,212,11.0,22.0,90,0.05,,---,0.30,VWS V14.00,2013-03-11 21:28:00,
2013-03-11 17:29:00,48.0,45.2,29.43,SSW,205,13.0,22.0,90,0.05,,---,0.30,VWS V14.00,2013-03-11 21:29:00,
2013-03-11 17:31:00,48.0,45.2,29.43,SW,217,10.0,22.0,90,0.05,,---,0.30,VWS V14.00,2013-03-11 21:31:00,
2013-03-11 17:32:00,48.2,45.4,29.43,SSW,209,9.0,22.0,90,0.05,,---,0.30,VWS V14.00,2013-03-11 21:32:00,
2013-03-11 17:33:00,48.3,45.5,29.43,SSW,212,4.0,22.0,90,0.05,,---,0.30,VWS V14.00,2013-03-11 21:33:00,
2013-03-11 17:34:00,48.5,45.7,29.43,SSW,208,6.0,22.0,90,0.05,,---,0.30,VWS V14.00,2013-03-11 21:34:00,
2013-03-11 17:36:00,48.8,46.0,29.43,SW,223,7.0,22.0,90,0.05,,---,0.30,VWS V14.00,2013-03-11 21:36:00,
2013-03-11 17:37:00,48.8,45.7,29.43,SW,233,16.0,22.0,89,0.05,,---,0.30,VWS V14.00,2013-03-11 21:37:00,
2013-03-11 17:38:00,48.8,45.7,29.43,SSW,208,14.0,22.0,89,0.05,,---,0.30,VWS V14.00,2013-03-11 21:38:00,
2013-03-11 17:39:00,48.8,45.4,29.43,SW,226,9.0,22.0,88,0.05,,---,0.30,VWS V14.00,2013-03-11 21:39:00,
2013-03-11 17:41:00,48.8,45.4,29.43,SW,220,9.0,22.0,88,0.05,,---,0.30,VWS V14.00,2013-03-11 21:41:00,
2013-03-11 17:42:00,48.9,45.5,29.43,WSW,240,11.0,22.0,88,0.05,,---,0.30,VWS V14.00,2013-03-11 21:42:00,
2013-03-11 17:43:00,48.9,45.5,29.43,SW,224,16.0,22.0,88,0.05,,---,0.30,VWS V14.00,2013-03-11 21:43:00,
2013-03-11 17:44:00,48.9,45.5,29.43,SW,219,11.0,22.0,88,0.05,,---,0.30,VWS V14.00,2013-03-11 21:44:00,
2013-03-11 17:46:00,48.8,45.1,29.43,SW,216,10.0,22.0,87,0.05,,---,0.30,VWS V14.00,2013-03-11 21:46:00,
2013-03-11 17:48:00,48.8,44.8,29.43,SSW,206,18.0,22.0,86,0.05,,---,0.30,VWS V14.00,2013-03-11 21:48:00,
2013-03-11 17:49:00,48.8,44.8,29.43,SSW,210,14.0,22.0,86,0.05,,---,0.30,VWS V14.00,2013-03-11 21:49:00,
2013-03-11 17:52:00,48.6,44.3,29.43,SW,236,15.0,22.0,85,0.05,,---,0.30,VWS V14.00,2013-03-11 21:52:00,
2013-03-11 17:53:00,48.6,44.3,29.43,WSW,254,11.0,22.0,85,0.05,,---,0.30,VWS V14.00,2013-03-11 21:53:00,
2013-03-11 17:54:00,48.6,44.3,29.43,West,270,9.0,22.0,85,0.05,,---,0.30,VWS V14.00,2013-03-11 21:54:00,
2013-03-11 17:55:00,48.6,44.3,29.43,SW,215,13.0,22.0,85,0.05,,---,0.30,VWS V14.00,2013-03-11 21:55:00,
2013-03-11 17:58:00,48.5,43.9,29.43,SW,232,8.0,22.0,84,0.05,,---,0.30,VWS V14.00,2013-03-11 21:58:00,
2013-03-11 17:59:00,48.5,43.9,29.43,SSW,213,6.0,22.0,84,0.05,,---,0.30,VWS V14.00,2013-03-11 21:59:00,
2013-03-11 18:00:00,48.5,43.9,29.44,SSW,205,9.0,22.0,84,0.05,,---,0.30,VWS V14.00,2013-03-11 22:00:00,
2013-03-11 18:03:00,48.3,43.7,29.44,NW,304,9.0,16.0,84,0.01,,---,0.30,VWS V14.00,2013-03-11 22:03:00,
2013-03-11 18:04:00,48.2,43.6,29.44,SW,222,8.0,16.0,84,0.01,,---,0.30,VWS V14.00,2013-03-11 22:04:00,
2013-03-11 18:05:00,48.2,43.6,29.44,SSW,205,16.0,16.0,84,0.01,,---,0.30,VWS V14.00,2013-03-11 22:05:00,
2013-03-11 18:08:00,48.0,43.1,29.44,SSW,205,15.0,24.0,83,0.01,,---,0.30,VWS V14.00,2013-03-11 22:08:00,
2013-03-11 18:09:00,47.9,43.0,29.44,SW,220,21.0,24.0,83,0.01,,---,0.30,VWS V14.00,2013-03-11 22:09:00,
2013-03-11 18:10:00,47.9,42.7,29.44,SSW,213,16.0,26.0,82,0.01,,---,0.30,VWS V14.00,2013-03-11 22:10:00,
2013-03-11 18:13:00,47.7,42.5,29.44,WSW,244,11.0,26.0,82,0.01,,---,0.30,VWS V14.00,2013-03-11 22:13:00,
2013-03-11 18:14:00,47.7,42.2,29.44,SSW,202,21.0,26.0,81,0.01,,---,0.30,VWS V14.00,2013-03-11 22:14:00,
2013-03-11 18:15:00,47.6,41.8,29.45,SW,234,16.0,26.0,80,0.01,,---,0.30,VWS V14.00,2013-03-11 22:15:00,
2013-03-11 18:18:00,47.6,41.4,29.45,SSW,196,11.0,26.0,79,0.01,,---,0.30,VWS V14.00,2013-03-11 22:18:00,
2013-03-11 18:19:00,47.6,41.4,29.45,NW,309,6.0,26.0,79,0.01,,---,0.30,VWS V14.00,2013-03-11 22:19:00,
2013-03-11 18:20:00,47.4,41.2,29.45,SSW,200,9.0,26.0,79,0.01,,---,0.30,VWS V14.00,2013-03-11 22:20:00,
2013-03-11 18:23:00,47.3,41.1,29.45,WSW,241,10.0,26.0,79,0.01,,---,0.30,VWS V14.00,2013-03-11 22:23:00,
2013-03-11 18:24:00,47.3,41.1,29.45,SSW,209,18.0,26.0,79,0.01,,---,0.30,VWS V14.00,2013-03-11 22:24:00,
2013-03-11 18:25:00,47.3,41.1,29.45,SW,224,16.0,26.0,79,0.01,,---,0.30,VWS V14.00,2013-03-11 22:25:00,
2013-03-11 18:28:00,47.3,40.8,29.45,SSW,209,14.0,26.0,78,0.01,,---,0.30,VWS V14.00,2013-03-11 22:28:00,
2013-03-11 18:29:00,47.1,40.6,29.45,SW,223,26.0,26.0,78,0.01,,---,0.30,VWS V14.00,2013-03-11 22:29:00,
2013-03-11 18:30:00,47.1,40.6,29.46,SW,219,11.0,26.0,78,0.01,,---,0.30,VWS V14.00,2013-03-11 22:30:00,
2013-03-11 18:31:00,47.1,40.6,29.46,SSW,205,16.0,26.0,78,0.01,,---,0.30,VWS V14.00,2013-03-11 22:31:00,
2013-03-11 18:33:00,47.0,40.5,29.46,SW,223,20.0,28.0,78,0.01,,---,0.30,VWS V14.00,2013-03-11 22:33:00,
2013-03-11 18:34:00,47.0,40.5,29.46,SSW,206,13.0,28.0,78,0.01,,---,0.30,VWS V14.00,2013-03-11 22:34:00,
2013-03-11 18:35:00,47.0,40.2,29.46,WSW,240,10.0,28.0,77,0.01,,---,0.30,VWS V14.00,2013-03-11 22:35:00,
2013-03-11 18:36:00,47.0,40.2,29.46,SSW,192,10.0,28.0,77,0.01,,---,0.30,VWS V14.00,2013-03-11 22:36:00,
2013-03-11 18:39:00,46.7,39.5,29.46,West,267,11.0,28.0,76,0.01,,---,0.30,VWS V14.00,2013-03-11 22:39:00,
2013-03-11 18:40:00,46.7,39.5,29.46,SW,230,15.0,28.0,76,0.01,,---,0.30,VWS V14.00,2013-03-11 22:40:00,
2013-03-11 18:41:00,46.5,39.4,29.46,West,281,14.0,28.0,76,0.01,,---,0.30,VWS V14.00,2013-03-11 22:41:00,
2013-03-11 18:43:00,46.4,38.9,29.46,SW,215,9.0,28.0,75,0.01,,---,0.30,VWS V14.00,2013-03-11 22:43:00,
2013-03-11 18:44:00,46.4,38.9,29.46,West,274,11.0,28.0,75,0.01,,---,0.30,VWS V14.00,2013-03-11 22:44:00,
2013-03-11 18:45:00,46.2,38.7,29.47,SSW,202,13.0,28.0,75,0.01,,---,0.30,VWS V14.00,2013-03-11 22:45:00,
2013-03-11 18:46:00,46.2,38.7,29.47,WSW,248,15.0,28.0,75,0.01,,---,0.30,VWS V14.00,2013-03-11 22:46:00,
2013-03-11 18:48:00,46.1,38.6,29.47,SW,216,11.0,28.0,75,0.01,,---,0.30,VWS V14.00,2013-03-11 22:48:00,
2013-03-11 18:49:00,46.1,38.3,29.47,SW,226,14.0,28.0,74,0.01,,---,0.30,VWS V14.00,2013-03-11 22:49:00,
2013-03-11 18:50:00,46.1,38.3,29.47,SW,223,11.0,28.0,74,0.01,,---,0.30,VWS V14.00,2013-03-11 22:50:00,
2013-03-11 18:51:00,46.0,38.2,29.47,SW,230,16.0,28.0,74,0.01,,---,0.30,VWS V14.00,2013-03-11 22:51:00,
2013-03-11 18:53:00,46.0,38.2,29.47,SSW,205,15.0,28.0,74,0.01,,---,0.30,VWS V14.00,2013-03-11 22:53:00,
2013-03-11 18:55:00,45.8,38.0,29.47,SSW,213,11.0,28.0,74,0.01,,---,0.30,VWS V14.00,2013-03-11 22:55:00,
2013-03-11 18:57:00,45.8,38.0,29.47,SSW,208,10.0,28.0,74,0.01,,---,0.30,VWS V14.00,2013-03-11 22:57:00,
2013-03-11 18:59:00,45.7,37.9,29.47,SSW,205,15.0,28.0,74,0.01,,---,0.30,VWS V14.00,2013-03-11 22:59:00,
2013-03-11 19:00:00,45.7,37.9,29.47,SW,236,9.0,28.0,74,0.01,,---,0.30,VWS V14.00,2013-03-11 23:00:00,
2013-03-11 19:02:00,45.7,37.9,29.47,SW,227,9.0,21.0,74,0.00,,---,0.30,VWS V14.00,2013-03-11 23:02:00,
2013-03-11 19:04:00,45.5,38.0,29.47,WSW,248,15.0,21.0,75,0.00,,---,0.30,VWS V14.00,2013-03-11 23:04:00,
2013-03-11 19:05:00,45.5,38.0,29.47,SSW,195,7.0,21.0,75,0.00,,---,0.30,VWS V14.00,2013-03-11 23:05:00,
2013-03-11 19:07:00,45.4,38.0,29.47,SW,230,13.0,21.0,75,0.00,,---,0.30,VWS V14.00,2013-03-11 23:07:00,
2013-03-11 19:09:00,45.2,37.4,29.47,SSW,213,10.0,21.0,74,0.00,,---,0.30,VWS V14.00,2013-03-11 23:09:00,
2013-03-11 19:10:00,45.2,37.4,29.47,SSW,210,11.0,21.0,74,0.00,,---,0.30,VWS V14.00,2013-03-11 23:10:00,
2013-03-11 19:12:00,45.2,37.4,29.47,WSW,239,16.0,24.0,74,0.00,,---,0.30,VWS V14.00,2013-03-11 23:12:00,
2013-03-11 19:14:00,45.1,37.3,29.48,SSW,200,10.0,24.0,74,0.00,,---,0.30,VWS V14.00,2013-03-11 23:14:00,
2013-03-11 19:15:00,45.1,37.3,29.48,SW,215,16.0,24.0,74,0.00,,---,0.30,VWS V14.00,2013-03-11 23:15:00,
2013-03-11 19:17:00,45.1,37.0,29.48,SW,230,7.0,26.0,73,0.00,,---,0.30,VWS V14.00,2013-03-11 23:17:00,
2013-03-11 19:19:00,45.1,37.0,29.48,SW,224,20.0,26.0,73,0.00,,---,0.30,VWS V14.00,2013-03-11 23:19:00,
2013-03-11 19:20:00,44.9,36.8,29.48,WSW,241,14.0,26.0,73,0.00,,---,0.30,VWS V14.00,2013-03-11 23:20:00,
2013-03-11 19:22:00,44.9,37.1,29.48,SSW,210,9.0,26.0,74,0.00,,---,0.30,VWS V14.00,2013-03-11 23:22:00,
2013-03-11 19:25:00,44.9,37.1,29.48,SW,233,22.0,26.0,74,0.00,,---,0.30,VWS V14.00,2013-03-11 23:25:00,
2013-03-11 19:27:00,44.6,36.8,29.48,WSW,240,17.0,26.0,74,0.00,,---,0.30,VWS V14.00,2013-03-11 23:27:00,
2013-03-11 19:30:00,44.6,36.8,29.49,SSW,213,14.0,26.0,74,0.00,,---,0.30,VWS V14.00,2013-03-11 23:30:00,
2013-03-11 19:31:00,44.5,36.7,29.49,West,261,11.0,26.0,74,0.00,,---,0.30,VWS V14.00,2013-03-11 23:31:00,
2013-03-11 19:32:00,44.5,36.7,29.49,SW,216,11.0,26.0,74,0.00,,---,0.30,VWS V14.00,2013-03-11 23:32:00,
2013-03-11 19:35:00,44.3,36.5,29.49,SW,226,8.0,26.0,74,0.00,,---,0.30,VWS V14.00,2013-03-11 23:35:00,
2013-03-11 19:36:00,44.2,36.5,29.49,SW,215,6.0,26.0,74,0.00,,---,0.30,VWS V14.00,2013-03-11 23:36:00,
2013-03-11 19:37:00,44.2,36.8,29.49,SSW,212,6.0,26.0,75,0.00,,---,0.30,VWS V14.00,2013-03-11 23:37:00,
2013-03-11 19:40:00,44.1,36.7,29.49,WSW,250,7.0,26.0,75,0.00,,---,0.30,VWS V14.00,2013-03-11 23:40:00,
2013-03-11 19:43:00,43.9,36.5,29.49,South,182,7.0,26.0,75,0.00,,---,0.30,VWS V14.00,2013-03-11 23:43:00,
2013-03-11 19:45:00,43.8,36.4,29.50,WSW,254,9.0,26.0,75,0.00,,---,0.30,VWS V14.00,2013-03-11 23:45:00,
2013-03-11 19:48:00,43.8,36.4,29.50,South,191,14.0,26.0,75,0.00,,---,0.30,VWS V14.00,2013-03-11 23:48:00,
2013-03-11 19:50:00,43.6,36.2,29.50,WSW,244,14.0,28.0,75,0.00,,---,0.30,VWS V14.00,2013-03-11 23:50:00,
2013-03-11 19:53:00,43.5,36.1,29.50,South,181,21.0,28.0,75,0.00,,---,0.30,VWS V14.00,2013-03-11 23:53:00,
2013-03-11 19:55:00,43.3,35.9,29.50,SW,217,20.0,28.0,75,0.00,,---,0.30,VWS V14.00,2013-03-11 23:55:00,
2013-03-11 19:58:00,43.2,35.8,29.50,SW,216,24.0,28.0,75,0.00,,---,0.30,VWS V14.00,2013-03-11 23:58:00,
2013-03-11 20:00:00,43.1,35.4,29.51,SW,227,17.0,17.0,74,0.00,,---,0.30,VWS V14.00,2013-03-12 00:00:00,
2013-03-11 20:03:00,42.8,35.1,29.51,SSW,210,15.0,30.0,74,0.00,,---,0.30,VWS V14.00,2013-03-12 00:03:00,
2013-03-11 20:05:00,42.6,34.9,29.51,SSW,209,10.0,30.0,74,0.00,,---,0.30,VWS V14.00,2013-03-12 00:05:00,
2013-03-11 20:06:00,42.6,34.9,29.51,SW,226,7.0,30.0,74,0.00,,---,0.30,VWS V14.00,2013-03-12 00:06:00,
2013-03-11 20:08:00,42.5,34.8,29.51,WSW,248,11.0,30.0,74,0.00,,---,0.30,VWS V14.00,2013-03-12 00:08:00,
2013-03-11 20:10:00,42.3,34.6,29.51,WNW,291,8.0,30.0,74,0.00,,---,0.30,VWS V14.00,2013-03-12 00:10:00,
2013-03-11 20:11:00,42.3,34.6,29.51,SW,232,7.0,30.0,74,0.00,,---,0.30,VWS V14.00,2013-03-12 00:11:00,
2013-03-11 20:13:00,42.2,34.5,29.51,SW,219,17.0,30.0,74,0.00,,---,0.30,VWS V14.00,2013-03-12 00:13:00,
2013-03-11 20:16:00,42.2,34.5,29.52,SW,215,7.0,30.0,74,0.00,,---,0.30,VWS V14.00,2013-03-12 00:16:00,
2013-03-11 20:18:00,42.1,34.4,29.52,SW,217,15.0,30.0,74,0.00,,---,0.30,VWS V14.00,2013-03-12 00:18:00,
2013-03-11 20:19:00,42.1,34.4,29.52,South,191,11.0,30.0,74,0.00,,---,0.30,VWS V14.00,2013-03-12 00:19:00,
2013-03-11 20:21:00,41.9,34.2,29.52,SW,223,15.0,30.0,74,0.00,,---,0.30,VWS V14.00,2013-03-12 00:21:00,
2013-03-11 20:22:00,41.9,34.2,29.52,SW,217,10.0,30.0,74,0.00,,---,0.30,VWS V14.00,2013-03-12 00:22:00,
2013-03-11 20:23:00,41.9,34.2,29.52,SW,227,7.0,30.0,74,0.00,,---,0.30,VWS V14.00,2013-03-12 00:23:00,
2013-03-11 20:24:00,41.9,34.2,29.52,SW,222,11.0,30.0,74,0.00,,---,0.30,VWS V14.00,2013-03-12 00:24:00,
2013-03-11 20:26:00,41.8,34.1,29.52,SW,215,11.0,30.0,74,0.00,,---,0.30,VWS V14.00,2013-03-12 00:26:00,
2013-03-11 20:27:00,41.8,34.1,29.52,NW,304,13.0,30.0,74,0.00,,---,0.30,VWS V14.00,2013-03-12 00:27:00,
2013-03-11 20:28:00,41.8,34.1,29.52,WNW,294,14.0,30.0,74,0.00,,---,0.30,VWS V14.00,2013-03-12 00:28:00,
2013-03-11 20:29:00,41.8,34.1,29.52,SSW,209,11.0,30.0,74,0.00,,---,0.30,VWS V14.00,2013-03-12 00:29:00,
2013-03-11 20:31:00,41.6,33.9,29.52,SW,223,10.0,30.0,74,0.00,,---,0.30,VWS V14.00,2013-03-12 00:31:00,
2013-03-11 20:33:00,41.6,33.6,29.52,SW,217,15.0,30.0,73,0.00,,---,0.30,VWS V14.00,2013-03-12 00:33:00,
2013-03-11 20:34:00,41.6,33.6,29.52,SW,220,13.0,30.0,73,0.00,,---,0.30,VWS V14.00,2013-03-12 00:34:00,
2013-03-11 20:36:00,41.6,33.6,29.52,WSW,237,20.0,30.0,73,0.00,,---,0.30,VWS V14.00,2013-03-12 00:36:00,
2013-03-11 20:38:00,41.6,33.6,29.52,WSW,237,18.0,30.0,73,0.00,,---,0.30,VWS V14.00,2013-03-12 00:38:00,
2013-03-11 20:39:00,41.5,33.8,29.52,SSW,199,10.0,30.0,74,0.00,,---,0.30,VWS V14.00,2013-03-12 00:39:00,
2013-03-11 20:41:00,41.5,33.8,29.52,WNW,294,14.0,30.0,74,0.00,,---,0.30,VWS V14.00,2013-03-12 00:41:00,
2013-03-11 20:43:00,41.5,33.8,29.52,SSW,209,24.0,30.0,74,0.00,,---,0.30,VWS V14.00,2013-03-12 00:43:00,
2013-03-11 20:44:00,41.3,33.7,29.53,SW,222,16.0,30.0,74,0.00,,---,0.30,VWS V14.00,2013-03-12 00:44:00,
2013-03-11 20:46:00,41.2,33.9,29.53,SW,217,16.0,30.0,75,0.00,,---,0.30,VWS V14.00,2013-03-12 00:46:00,
2013-03-11 20:48:00,41.1,33.8,29.53,WSW,237,22.0,30.0,75,0.00,,---,0.30,VWS V14.00,2013-03-12 00:48:00,
2013-03-11 20:49:00,41.1,33.8,29.53,SSW,208,21.0,30.0,75,0.00,,---,0.30,VWS V14.00,2013-03-12 00:49:00,
2013-03-11 20:51:00,40.9,33.6,29.53,SW,227,11.0,30.0,75,0.00,,---,0.30,VWS V14.00,2013-03-12 00:51:00,
2013-03-11 20:53:00,40.8,33.5,29.53,SW,226,20.0,30.0,75,0.00,,---,0.30,VWS V14.00,2013-03-12 00:53:00,
2013-03-11 20:54:00,40.8,33.5,29.53,SSW,209,15.0,30.0,75,0.00,,---,0.30,VWS V14.00,2013-03-12 00:54:00,
2013-03-11 20:57:00,40.6,33.6,29.53,SW,217,14.0,30.0,76,0.00,,---,0.30,VWS V14.00,2013-03-12 00:57:00,
2013-03-11 20:58:00,40.6,33.6,29.53,SW,220,24.0,30.0,76,0.00,,---,0.30,VWS V14.00,2013-03-12 00:58:00,
2013-03-11 20:59:00,40.6,33.6,29.53,SW,220,24.0,30.0,76,0.00,,---,0.30,VWS V14.00,2013-03-12 00:59:00,
2013-03-11 21:02:00,40.3,33.3,29.54,WSW,240,15.0,25.0,76,0.00,,---,0.30,VWS V14.00,2013-03-12 01:02:00,
2013-03-11 21:03:00,40.2,32.9,29.54,SW,220,14.0,25.0,75,0.00,,---,0.30,VWS V14.00,2013-03-12 01:03:00,
2013-03-11 21:04:00,40.2,32.9,29.54,SW,217,10.0,25.0,75,0.00,,---,0.30,VWS V14.00,2013-03-12 01:04:00,
2013-03-11 21:07:00,40.1,32.8,29.54,SSW,210,11.0,25.0,75,0.00,,---,0.30,VWS V14.00,2013-03-12 01:07:00,
2013-03-11 21:09:00,40.1,32.8,29.54,SSW,206,13.0,25.0,75,0.00,,---,0.30,VWS V14.00,2013-03-12 01:09:00,
2013-03-11 21:12:00,39.8,32.5,29.54,SW,226,11.0,34.0,75,0.00,,---,0.30,VWS V14.00,2013-03-12 01:12:00,
2013-03-11 21:14:00,39.8,32.5,29.54,SSW,199,7.0,34.0,75,0.00,,---,0.30,VWS V14.00,2013-03-12 01:14:00,
2013-03-11 21:15:00,39.6,32.3,29.55,SSW,205,11.0,34.0,75,0.00,,---,0.30,VWS V14.00,2013-03-12 01:15:00,
2013-03-11 21:17:00,39.5,32.2,29.55,WSW,246,10.0,34.0,75,0.00,,---,0.30,VWS V14.00,2013-03-12 01:17:00,
2013-03-11 21:19:00,39.5,32.6,29.55,WSW,248,16.0,34.0,76,0.00,,---,0.30,VWS V14.00,2013-03-12 01:19:00,
2013-03-11 21:20:00,39.5,32.6,29.55,SW,232,14.0,34.0,76,0.00,,---,0.30,VWS V14.00,2013-03-12 01:20:00,
2013-03-11 21:23:00,39.3,32.4,29.55,SSW,210,11.0,34.0,76,0.00,,---,0.30,VWS V14.00,2013-03-12 01:23:00,
2013-03-11 21:24:00,39.3,32.7,29.55,WNW,298,9.0,34.0,77,0.00,,---,0.30,VWS V14.00,2013-03-12 01:24:00,
2013-03-11 21:26:00,39.3,32.7,29.55,SSW,203,9.0,34.0,77,0.00,,---,0.30,VWS V14.00,2013-03-12 01:26:00,
2013-03-11 21:28:00,39.2,32.9,29.55,SSW,195,9.0,34.0,78,0.00,,---,0.30,VWS V14.00,2013-03-12 01:28:00,
2013-03-11 21:29:00,39.2,32.9,29.55,SW,227,7.0,34.0,78,0.00,,---,0.30,VWS V14.00,2013-03-12 01:29:00,
2013-03-11 21:31:00,39.2,32.9,29.56,SW,224,7.0,34.0,78,0.00,,---,0.30,VWS V14.00,2013-03-12 01:31:00,
2013-03-11 21:33:00,39.2,32.9,29.56,SSW,192,9.0,34.0,78,0.00,,---,0.30,VWS V14.00,2013-03-12 01:33:00,
2013-03-11 21:34:00,39.1,33.2,29.56,SW,220,8.0,34.0,79,0.00,,---,0.30,VWS V14.00,2013-03-12 01:34:00,
2013-03-11 21:36:00,39.1,33.2,29.56,SSW,203,11.0,34.0,79,0.00,,---,0.30,VWS V14.00,2013-03-12 01:36:00,
2013-03-11 21:38:00,39.1,33.2,29.56,SW,233,8.0,34.0,79,0.00,,---,0.30,VWS V14.00,2013-03-12 01:38:00,
2013-03-11 21:39:00,38.9,33.0,29.56,SSW,193,15.0,34.0,79,0.00,,---,0.30,VWS V14.00,2013-03-12 01:39:00,
2013-03-11 21:41:00,38.9,33.0,29.56,SW,217,7.0,34.0,79,0.00,,---,0.30,VWS V14.00,2013-03-12 01:41:00,
2013-03-11 21:43:00,38.8,32.9,29.56,SSW,209,10.0,34.0,79,0.00,,---,0.30,VWS V14.00,2013-03-12 01:43:00,
2013-03-11 21:44:00,38.6,33.0,29.56,SSW,206,11.0,34.0,80,0.00,,---,0.30,VWS V14.00,2013-03-12 01:44:00,
2013-03-11 21:46:00,38.5,32.9,29.56,SW,223,8.0,34.0,80,0.00,,---,0.30,VWS V14.00,2013-03-12 01:46:00,
2013-03-11 21:48:00,38.3,32.4,29.56,WSW,243,16.0,34.0,79,0.00,,---,0.30,VWS V14.00,2013-03-12 01:48:00,
2013-03-11 21:49:00,38.3,32.4,29.56,West,265,17.0,34.0,79,0.00,,---,0.30,VWS V14.00,2013-03-12 01:49:00,
2013-03-11 21:51:00,38.3,32.4,29.56,SW,216,26.0,34.0,79,0.00,,---,0.30,VWS V14.00,2013-03-12 01:51:00,
2013-03-11 21:53:00,38.2,32.3,29.56,SSW,205,13.0,34.0,79,0.00,,---,0.30,VWS V14.00,2013-03-12 01:53:00,
2013-03-11 21:54:00,38.2,32.3,29.56,SSW,212,11.0,34.0,79,0.00,,---,0.30,VWS V14.00,2013-03-12 01:54:00,
2013-03-11 21:56:00,38.2,32.3,29.56,NNW,329,9.0,34.0,79,0.00,,---,0.30,VWS V14.00,2013-03-12 01:56:00,
2013-03-11 21:58:00,38.0,32.1,29.56,SW,219,20.0,34.0,79,0.00,,---,0.30,VWS V14.00,2013-03-12 01:58:00,
2013-03-11 21:59:00,38.0,32.1,29.56,SSW,210,22.0,34.0,79,0.00,,---,0.30,VWS V14.00,2013-03-12 01:59:00,
2013-03-11 22:01:00,38.0,32.1,29.57,SW,215,6.0,17.0,79,0.00,,---,0.30,VWS V14.00,2013-03-12 02:01:00,
2013-03-11 22:03:00,38.0,32.1,29.57,SW,216,8.0,18.0,79,0.00,,---,0.30,VWS V14.00,2013-03-12 02:03:00,
2013-03-11 22:04:00,38.0,32.1,29.57,SW,223,11.0,18.0,79,0.00,,---,0.30,VWS V14.00,2013-03-12 02:04:00,
2013-03-11 22:06:00,37.9,32.0,29.57,SW,216,9.0,20.0,79,0.00,,---,0.30,VWS V14.00,2013-03-12 02:06:00,
2013-03-11 22:08:00,37.9,32.0,29.57,SSW,213,20.0,31.0,79,0.00,,---,0.30,VWS V14.00,2013-03-12 02:08:00,
2013-03-11 22:09:00,37.9,32.0,29.57,SSW,210,15.0,31.0,79,0.00,,---,0.30,VWS V14.00,2013-03-12 02:09:00,
2013-03-11 22:10:00,37.9,32.0,29.57,SSW,209,14.0,31.0,79,0.00,,---,0.30,VWS V14.00,2013-03-12 02:10:00,
2013-03-11 22:11:00,37.8,31.9,29.57,SW,217,16.0,34.0,79,0.00,,---,0.30,VWS V14.00,2013-03-12 02:11:00,
2013-03-11 22:13:00,37.8,31.9,29.57,SSW,213,8.0,34.0,79,0.00,,---,0.30,VWS V14.00,2013-03-12 02:13:00,
2013-03-11 22:14:00,37.8,31.9,29.58,SW,236,17.0,34.0,79,0.00,,---,0.30,VWS V14.00,2013-03-12 02:14:00,
2013-03-11 22:15:00,37.6,31.7,29.58,NW,319,15.0,34.0,79,0.00,,---,0.30,VWS V14.00,2013-03-12 02:15:00,
2013-03-11 22:17:00,37.6,31.7,29.58,WSW,251,7.0,34.0,79,0.00,,---,0.30,VWS V14.00,2013-03-12 02:17:00,
2013-03-11 22:19:00,37.6,31.7,29.58,SSW,208,18.0,34.0,79,0.00,,---,0.30,VWS V14.00,2013-03-12 02:19:00,
2013-03-11 22:20:00,37.5,31.6,29.58,SW,215,22.0,34.0,79,0.00,,---,0.30,VWS V14.00,2013-03-12 02:20:00,
2013-03-11 22:22:00,37.5,31.6,29.58,WSW,247,8.0,34.0,79,0.00,,---,0.30,VWS V14.00,2013-03-12 02:22:00,
2013-03-11 22:24:00,37.3,31.4,29.58,South,185,16.0,34.0,79,0.00,,---,0.30,VWS V14.00,2013-03-12 02:24:00,
2013-03-11 22:25:00,37.3,31.4,29.58,WSW,243,13.0,34.0,79,0.00,,---,0.30,VWS V14.00,2013-03-12 02:25:00,
2013-03-11 22:28:00,37.3,31.4,29.58,SSW,208,20.0,34.0,79,0.00,,---,0.30,VWS V14.00,2013-03-12 02:28:00,
2013-03-11 22:29:00,37.3,31.4,29.58,SSW,200,17.0,34.0,79,0.00,,---,0.30,VWS V14.00,2013-03-12 02:29:00,
2013-03-11 22:30:00,37.2,31.3,29.59,SW,219,16.0,34.0,79,0.00,,---,0.30,VWS V14.00,2013-03-12 02:30:00,
2013-03-11 22:33:00,37.2,31.0,29.59,WSW,243,10.0,34.0,78,0.00,,---,0.30,VWS V14.00,2013-03-12 02:33:00,
2013-03-11 22:34:00,37.2,31.0,29.59,SSW,198,8.0,34.0,78,0.00,,---,0.30,VWS V14.00,2013-03-12 02:34:00,
2013-03-11 22:35:00,37.3,31.1,29.59,SSW,206,17.0,34.0,78,0.00,,---,0.30,VWS V14.00,2013-03-12 02:35:00,
2013-03-11 22:38:00,37.2,31.3,29.59,SSW,208,16.0,34.0,79,0.00,,---,0.30,VWS V14.00,2013-03-12 02:38:00,
2013-03-11 22:39:00,37.2,31.3,29.59,SW,234,8.0,34.0,79,0.00,,---,0.30,VWS V14.00,2013-03-12 02:39:00,
2013-03-11 22:40:00,37.2,31.3,29.59,SW,224,10.0,34.0,79,0.00,,---,0.30,VWS V14.00,2013-03-12 02:40:00,
2013-03-11 22:43:00,37.2,31.3,29.59,WSW,248,9.0,34.0,79,0.00,,---,0.30,VWS V14.00,2013-03-12 02:43:00,
2013-03-11 22:44:00,37.2,31.3,29.59,SW,233,8.0,34.0,79,0.00,,---,0.30,VWS V14.00,2013-03-12 02:44:00,
2013-03-11 22:45:00,37.2,31.3,29.60,WSW,243,13.0,34.0,79,0.00,,---,0.30,VWS V14.00,2013-03-12 02:45:00,
2013-03-11 22:49:00,37.2,31.3,29.60,SSW,193,15.0,34.0,79,0.00,,---,0.30,VWS V14.00,2013-03-12 02:49:00,
2013-03-11 22:50:00,37.2,31.3,29.60,SSW,210,14.0,34.0,79,0.00,,---,0.30,VWS V14.00,2013-03-12 02:50:00,
2013-03-11 22:54:00,37.2,31.3,29.60,SW,216,16.0,34.0,79,0.00,,---,0.30,VWS V14.00,2013-03-12 02:54:00,
2013-03-11 22:55:00,37.0,31.1,29.60,WSW,239,10.0,34.0,79,0.00,,---,0.30,VWS V14.00,2013-03-12 02:55:00,
2013-03-11 22:56:00,37.0,31.1,29.60,SW,219,20.0,34.0,79,0.00,,---,0.30,VWS V14.00,2013-03-12 02:56:00,
2013-03-11 22:59:00,37.0,31.4,29.60,South,174,13.0,34.0,80,0.00,,---,0.30,VWS V14.00,2013-03-12 02:59:00,
2013-03-11 23:00:00,37.0,31.4,29.60,SW,224,15.0,15.0,80,0.00,,---,0.30,VWS V14.00,2013-03-12 03:00:00,
2013-03-11 23:01:00,37.0,31.4,29.60,WSW,244,11.0,16.0,80,0.00,,---,0.30,VWS V14.00,2013-03-12 03:01:00,
2013-03-11 23:02:00,36.8,31.8,29.61,SW,236,14.0,18.0,82,0.00,,---,0.30,VWS V14.00,2013-03-12 03:02:00,
2013-03-11 23:03:00,36.8,31.8,29.61,SSW,206,18.0,21.0,82,0.00,,---,0.30,VWS V14.00,2013-03-12 03:03:00,
2013-03-11 23:04:00,37.0,31.4,29.60,SSW,209,7.0,20.0,80,0.00,,---,0.30,VWS V14.00,2013-03-12 03:04:00,
2013-03-11 23:05:00,37.0,31.4,29.60,SW,219,13.0,20.0,80,0.00,,---,0.30,VWS V14.00,2013-03-12 03:05:00,
2013-03-11 23:07:00,37.0,31.4,29.60,SSW,212,10.0,20.0,80,0.00,,---,0.30,VWS V14.00,2013-03-12 03:07:00,
2013-03-11 23:09:00,37.0,31.4,29.60,WSW,237,10.0,20.0,80,0.00,,---,0.30,VWS V14.00,2013-03-12 03:09:00,
2013-03-11 23:11:00,37.0,31.7,29.60,SSW,205,18.0,25.0,81,0.00,,---,0.30,VWS V14.00,2013-03-12 03:11:00,
2013-03-11 23:12:00,37.0,31.7,29.60,SW,236,13.0,25.0,81,0.00,,---,0.30,VWS V14.00,2013-03-12 03:12:00,
2013-03-11 23:14:00,37.0,31.7,29.60,SSW,210,18.0,25.0,81,0.00,,---,0.30,VWS V14.00,2013-03-12 03:14:00,
2013-03-11 23:16:00,37.0,31.7,29.61,SSW,199,7.0,25.0,81,0.00,,---,0.30,VWS V14.00,2013-03-12 03:16:00,
2013-03-11 23:17:00,36.9,31.6,29.61,SW,222,13.0,25.0,81,0.00,,---,0.30,VWS V14.00,2013-03-12 03:17:00,
2013-03-11 23:19:00,36.9,31.6,29.61,SW,229,7.0,25.0,81,0.00,,---,0.30,VWS V14.00,2013-03-12 03:19:00,
2013-03-11 23:20:00,36.9,31.6,29.61,SW,217,17.0,25.0,81,0.00,,---,0.30,VWS V14.00,2013-03-12 03:20:00,
2013-03-11 23:21:00,36.9,31.6,29.61,West,271,9.0,25.0,81,0.00,,---,0.30,VWS V14.00,2013-03-12 03:21:00,
2013-03-11 23:23:00,36.9,31.6,29.61,SSW,210,17.0,25.0,81,0.00,,---,0.30,VWS V14.00,2013-03-12 03:23:00,
2013-03-11 23:24:00,36.9,31.6,29.61,WSW,244,16.0,25.0,81,0.00,,---,0.30,VWS V14.00,2013-03-12 03:24:00,
2013-03-11 23:25:00,36.9,31.6,29.61,SSW,200,7.0,25.0,81,0.00,,---,0.30,VWS V14.00,2013-03-12 03:25:00,
2013-03-11 23:27:00,36.9,31.6,29.61,SW,230,8.0,25.0,81,0.00,,---,0.30,VWS V14.00,2013-03-12 03:27:00,
2013-03-11 23:28:00,36.9,31.6,29.61,SSW,210,7.0,25.0,81,0.00,,---,0.30,VWS V14.00,2013-03-12 03:28:00,
2013-03-11 23:29:00,36.9,31.6,29.61,SSW,206,10.0,25.0,81,0.00,,---,0.30,VWS V14.00,2013-03-12 03:29:00,
2013-03-11 23:30:00,36.9,31.6,29.61,West,274,9.0,25.0,81,0.00,,---,0.30,VWS V14.00,2013-03-12 03:30:00,
2013-03-11 23:32:00,36.9,31.9,29.61,SSW,210,10.0,25.0,82,0.00,,---,0.30,VWS V14.00,2013-03-12 03:32:00,
2013-03-11 23:33:00,36.9,31.9,29.61,SSW,213,11.0,25.0,82,0.00,,---,0.30,VWS V14.00,2013-03-12 03:33:00,
2013-03-11 23:34:00,36.9,31.9,29.61,SW,220,7.0,25.0,82,0.00,,---,0.30,VWS V14.00,2013-03-12 03:34:00,
2013-03-11 23:35:00,36.9,31.9,29.61,SW,215,10.0,25.0,82,0.00,,---,0.30,VWS V14.00,2013-03-12 03:35:00,
2013-03-11 23:37:00,36.9,31.9,29.61,WSW,244,9.0,25.0,82,0.00,,---,0.30,VWS V14.00,2013-03-12 03:37:00,
2013-03-11 23:38:00,36.9,31.6,29.61,WSW,250,11.0,25.0,81,0.00,,---,0.30,VWS V14.00,2013-03-12 03:38:00,
2013-03-11 23:39:00,36.9,31.9,29.61,SW,215,14.0,25.0,82,0.00,,---,0.30,VWS V14.00,2013-03-12 03:39:00,
2013-03-11 23:40:00,36.9,31.6,29.61,SW,222,10.0,25.0,81,0.00,,---,0.30,VWS V14.00,2013-03-12 03:40:00,
2013-03-11 23:42:00,36.9,31.9,29.61,SSW,198,7.0,25.0,82,0.00,,---,0.30,VWS V14.00,2013-03-12 03:42:00,
2013-03-11 23:43:00,36.9,31.9,29.61,SW,220,17.0,25.0,82,0.00,,---,0.30,VWS V14.00,2013-03-12 03:43:00,
2013-03-11 23:45:00,36.9,31.9,29.61,SW,215,9.0,25.0,82,0.00,,---,0.30,VWS V14.00,2013-03-12 03:45:00,
2013-03-11 23:47:00,36.9,31.9,29.61,SSW,202,9.0,25.0,82,0.00,,---,0.30,VWS V14.00,2013-03-12 03:47:00,
2013-03-11 23:48:00,36.9,31.9,29.61,West,263,9.0,25.0,82,0.00,,---,0.30,VWS V14.00,2013-03-12 03:48:00,
2013-03-11 23:50:00,36.8,31.8,29.61,SSW,212,15.0,25.0,82,0.00,,---,0.30,VWS V14.00,2013-03-12 03:50:00,
2013-03-11 23:53:00,36.8,31.8,29.61,SSW,209,13.0,25.0,82,0.00,,---,0.30,VWS V14.00,2013-03-12 03:53:00,
2013-03-11 23:54:00,36.8,31.8,29.61,SSW,212,9.0,25.0,82,0.00,,---,0.30,VWS V14.00,2013-03-12 03:54:00,
2013-03-11 23:55:00,36.8,31.8,29.61,SW,223,18.0,25.0,82,0.00,,---,0.30,VWS V14.00,2013-03-12 03:55:00,
2013-03-11 23:58:00,36.8,31.8,29.61,WNW,302,11.0,25.0,82,0.00,,---,0.30,VWS V14.00,2013-03-12 03:58:00,
2013-03-11 23:59:00,36.8,31.8,29.61,SW,232,15.0,25.0,82,0.00,,---,0.30,VWS V14.00,2013-03-12 03:59:00,